Observation data for Wall on 07/21/2019      Previous  Date  Next       Current Mesonet Observations  Soil Data  Daily Summary Page  Observations in Plain Language
KWA1 210500Z 15008KT 27/16 A2992 RMK A01 T02680156  RH  050%=      5-min Rain = 0
KWA1 210501Z 15008KT 27/16 A2992 RMK A01 T02680156  RH  050%=      5-min Rain = 0
KWA1 210502Z 15008KT 27/16 A2992 RMK A01 T02680156  RH  050%=      5-min Rain = 0
KWA1 210503Z 15007KT 27/16 A2992 RMK A01 T02680156  RH  050%=      5-min Rain = 0
KWA1 210504Z 15007KT 27/16 A2992 RMK A01 T02670156  RH  050%=      5-min Rain = 0
KWA1 210505Z 15007KT 27/16 A2992 RMK A01 T02670156  RH  051%=      5-min Rain = 0
KWA1 210506Z 15006KT 27/16 A2992 RMK A01 T02660156  RH  051%=      5-min Rain = 0
KWA1 210507Z 15006KT 27/16 A2992 RMK A01 T02650156  RH  051%=      5-min Rain = 0
KWA1 210508Z 15006KT 26/16 A2992 RMK A01 T02640155  RH  051%=      5-min Rain = 0
KWA1 210509Z 15006KT 26/16 A2992 RMK A01 T02640156  RH  051%=      5-min Rain = 0
KWA1 210510Z 15006KT 26/16 A2992 RMK A01 T02630155  RH  051%=      5-min Rain = 0
KWA1 210511Z 15006KT 26/16 A2992 RMK A01 T02620155  RH  052%=      5-min Rain = 0
KWA1 210512Z 14006KT 26/16 A2992 RMK A01 T02630156  RH  052%=      5-min Rain = 0
KWA1 210513Z 14006KT 26/16 A2992 RMK A01 T02630156  RH  052%=      5-min Rain = 0
KWA1 210514Z 14006KT 26/16 A2992 RMK A01 T02630156  RH  052%=      5-min Rain = 0
KWA1 210515Z 14007KT 26/16 A2992 RMK A01 T02630156  RH  052%=      5-min Rain = 0
KWA1 210516Z 14006KT 26/16 A2993 RMK A01 T02640156  RH  052%=      5-min Rain = 0
KWA1 210517Z 14006KT 26/16 A2993 RMK A01 T02640156  RH  052%=      5-min Rain = 0
KWA1 210518Z 15007KT 27/16 A2993 RMK A01 T02650157  RH  051%=      5-min Rain = 0
KWA1 210519Z 14007KT 27/16 A2993 RMK A01 T02650157  RH  052%=      5-min Rain = 0
KWA1 210520Z 15007KT 27/16 A2993 RMK A01 T02650157  RH  052%=      5-min Rain = 0
KWA1 210521Z 14006KT 27/16 A2993 RMK A01 T02660157  RH  051%=      5-min Rain = 0
KWA1 210522Z 14007KT 27/16 A2993 RMK A01 T02660158  RH  051%=      5-min Rain = 0
KWA1 210523Z 14007KT 27/16 A2993 RMK A01 T02660158  RH  052%=      5-min Rain = 0
KWA1 210524Z 14007KT 27/16 A2993 RMK A01 T02660158  RH  052%=      5-min Rain = 0
KWA1 210525Z 14007KT 27/16 A2993 RMK A01 T02660159  RH  052%=      5-min Rain = 0
KWA1 210526Z 14006KT 27/16 A2993 RMK A01 T02660159  RH  052%=      5-min Rain = 0
KWA1 210527Z 14007KT 27/16 A2993 RMK A01 T02660159  RH  052%=      5-min Rain = 0
KWA1 210528Z 15007KT 27/16 A2993 RMK A01 T02660159  RH  052%=      5-min Rain = 0
KWA1 210529Z 15008KT 27/16 A2993 RMK A01 T02660160  RH  052%=      5-min Rain = 0
KWA1 210530Z 14008KT 27/16 A2993 RMK A01 T02650160  RH  052%=      5-min Rain = 0
KWA1 210531Z 15007KT 27/16 A2993 RMK A01 T02660160  RH  052%=      5-min Rain = 0
KWA1 210532Z 15008KT 27/16 A2993 RMK A01 T02660161  RH  052%=      5-min Rain = 0
KWA1 210533Z 15008KT 27/16 A2993 RMK A01 T02650161  RH  053%=      5-min Rain = 0
KWA1 210534Z 15007KT 27/16 A2993 RMK A01 T02650161  RH  053%=      5-min Rain = 0
KWA1 210535Z 15007KT 27/16 A2993 RMK A01 T02650161  RH  053%=      5-min Rain = 0
KWA1 210536Z 15007KT 27/16 A2993 RMK A01 T02650162  RH  053%=      5-min Rain = 0
KWA1 210537Z 15007KT 27/16 A2993 RMK A01 T02650162  RH  053%=      5-min Rain = 0
KWA1 210538Z 15007KT 27/16 A2993 RMK A01 T02650162  RH  053%=      5-min Rain = 0
KWA1 210539Z 15008KT 27/16 A2993 RMK A01 T02650163  RH  053%=      5-min Rain = 0
KWA1 210540Z 15008KT 27/16 A2993 RMK A01 T02650164  RH  054%=      5-min Rain = 0
KWA1 210541Z 15008KT 27/16 A2993 RMK A01 T02660164  RH  054%=      5-min Rain = 0
KWA1 210542Z 15008KT 27/17 A2993 RMK A01 T02670165  RH  054%=      5-min Rain = 0
KWA1 210543Z 15009KT 27/17 A2993 RMK A01 T02660165  RH  054%=      5-min Rain = 0
KWA1 210544Z 15008KT 27/17 A2993 RMK A01 T02670166  RH  054%=      5-min Rain = 0
KWA1 210545Z 15008KT 27/17 A2993 RMK A01 T02680166  RH  054%=      5-min Rain = 0
KWA1 210546Z 15007KT 27/17 A2993 RMK A01 T02680166  RH  054%=      5-min Rain = 0
KWA1 210547Z 15008KT 27/17 A2993 RMK A01 T02680166  RH  054%=      5-min Rain = 0
KWA1 210548Z 15009KT 27/17 A2994 RMK A01 T02680167  RH  054%=      5-min Rain = 0
KWA1 210549Z 15008KT 27/17 A2994 RMK A01 T02680168  RH  054%=      5-min Rain = 0
KWA1 210550Z 15008KT 27/17 A2994 RMK A01 T02670168  RH  054%=      5-min Rain = 0
KWA1 210551Z 15009KT 27/17 A2994 RMK A01 T02680168  RH  054%=      5-min Rain = 0
KWA1 210552Z 15008KT 27/17 A2994 RMK A01 T02690169  RH  054%=      5-min Rain = 0
KWA1 210553Z 15009KT 27/17 A2994 RMK A01 T02690169  RH  054%=      5-min Rain = 0
KWA1 210554Z 15010KT 27/17 A2994 RMK A01 T02690170  RH  055%=      5-min Rain = 0
KWA1 210555Z 15010KT 27/17 A2994 RMK A01 T02690170  RH  055%=      5-min Rain = 0
KWA1 210556Z 15009KT 27/17 A2994 RMK A01 T02700171  RH  055%=      5-min Rain = 0
KWA1 210557Z 15010KT 27/17 A2994 RMK A01 T02700171  RH  055%=      5-min Rain = 0
KWA1 210558Z 15010KT 27/17 A2994 RMK A01 T02710172  RH  055%=      5-min Rain = 0
KWA1 210559Z 15009KT 27/17 A2994 RMK A01 T02710172  RH  055%=      5-min Rain = 0
KWA1 210600Z 15010KT 27/17 A2993 RMK A01 T02710173  RH  055%=      5-min Rain = 0
KWA1 210601Z 15010KT 27/17 A2993 RMK A01 T02710173  RH  055%=      5-min Rain = 0
KWA1 210602Z 15010KT 27/17 A2993 RMK A01 T02720173  RH  055%=      5-min Rain = 0
KWA1 210603Z 15012KT 27/17 A2993 RMK A01 T02720174  RH  055%=      5-min Rain = 0
KWA1 210604Z 15010KT 27/18 A2993 RMK A01 T02730175  RH  055%=      5-min Rain = 0
KWA1 210605Z 15010KT 27/18 A2993 RMK A01 T02730175  RH  055%=      5-min Rain = 0
KWA1 210606Z 14010KT 27/18 A2993 RMK A01 T02730175  RH  055%=      5-min Rain = 0
KWA1 210607Z 15011KT 27/18 A2993 RMK A01 T02730175  RH  055%=      5-min Rain = 0
KWA1 210608Z 15011KT 27/18 A2993 RMK A01 T02730176  RH  055%=      5-min Rain = 0
KWA1 210609Z 15011KT 27/18 A2993 RMK A01 T02730176  RH  055%=      5-min Rain = 0
KWA1 210610Z 15012KT 27/18 A2993 RMK A01 T02730176  RH  056%=      5-min Rain = 0
KWA1 210611Z 15012KT 27/18 A2993 RMK A01 T02730177  RH  056%=      5-min Rain = 0
KWA1 210612Z 15012KT 27/18 A2993 RMK A01 T02730177  RH  056%=      5-min Rain = 0
KWA1 210613Z 15012KT 27/18 A2993 RMK A01 T02740177  RH  056%=      5-min Rain = 0
KWA1 210614Z 15012KT 27/18 A2993 RMK A01 T02740177  RH  056%=      5-min Rain = 0
KWA1 210615Z 15013KT 27/18 A2993 RMK A01 T02740178  RH  056%=      5-min Rain = 0
KWA1 210616Z 15013KT 27/18 A2993 RMK A01 T02740178  RH  056%=      5-min Rain = 0
KWA1 210617Z 16011KT 27/18 A2993 RMK A01 T02740178  RH  056%=      5-min Rain = 0
KWA1 210618Z 15011KT 28/18 A2993 RMK A01 T02750178  RH  056%=      5-min Rain = 0
KWA1 210619Z 15011KT 27/18 A2993 RMK A01 T02740178  RH  056%=      5-min Rain = 0
KWA1 210620Z 16010KT 27/18 A2993 RMK A01 T02730178  RH  056%=      5-min Rain = 0
KWA1 210621Z 15012KT 27/18 A2993 RMK A01 T02730179  RH  056%=      5-min Rain = 0
KWA1 210622Z 15012KT 27/18 A2993 RMK A01 T02730179  RH  056%=      5-min Rain = 0
KWA1 210623Z 15010KT 27/18 A2992 RMK A01 T02730179  RH  056%=      5-min Rain = 0
KWA1 210624Z 15010KT 27/18 A2992 RMK A01 T02730179  RH  056%=      5-min Rain = 0
KWA1 210625Z 15014KT 27/18 A2993 RMK A01 T02730179  RH  057%=      5-min Rain = 0
KWA1 210626Z 15014KT 27/18 A2992 RMK A01 T02730179  RH  057%=      5-min Rain = 0
KWA1 210627Z 15014KT 27/18 A2992 RMK A01 T02730180  RH  057%=      5-min Rain = 0
KWA1 210628Z 15013KT 27/18 A2992 RMK A01 T02740180  RH  057%=      5-min Rain = 0
KWA1 210629Z 15012KT 27/18 A2992 RMK A01 T02740180  RH  057%=      5-min Rain = 0
KWA1 210630Z 15012KT 27/18 A2992 RMK A01 T02740180  RH  057%=      5-min Rain = 0
KWA1 210631Z 15012KT 27/18 A2993 RMK A01 T02740180  RH  057%=      5-min Rain = 0
KWA1 210632Z 15011KT 27/18 A2993 RMK A01 T02730180  RH  057%=      5-min Rain = 0
KWA1 210633Z 15012KT 27/18 A2993 RMK A01 T02730180  RH  057%=      5-min Rain = 0
KWA1 210634Z 16013KT 27/18 A2993 RMK A01 T02720180  RH  057%=      5-min Rain = 0
KWA1 210635Z 16013KT 27/18 A2993 RMK A01 T02720181  RH  057%=      5-min Rain = 0
KWA1 210636Z 16012KT 27/18 A2993 RMK A01 T02720181  RH  057%=      5-min Rain = 0
KWA1 210637Z 16014KT 27/18 A2993 RMK A01 T02720181  RH  057%=      5-min Rain = 0
KWA1 210638Z 16013KT 27/18 A2993 RMK A01 T02720181  RH  058%=      5-min Rain = 0
KWA1 210639Z 15011KT 27/18 A2993 RMK A01 T02720181  RH  058%=      5-min Rain = 0
KWA1 210640Z 15012KT 27/18 A2993 RMK A01 T02710181  RH  058%=      5-min Rain = 0
KWA1 210641Z 15013KT 27/18 A2993 RMK A01 T02710181  RH  058%=      5-min Rain = 0
KWA1 210642Z 15011KT 27/18 A2993 RMK A01 T02710181  RH  058%=      5-min Rain = 0
KWA1 210643Z 15013KT 27/18 A2993 RMK A01 T02710181  RH  058%=      5-min Rain = 0
KWA1 210644Z 15012KT 27/18 A2993 RMK A01 T02700181  RH  058%=      5-min Rain = 0
KWA1 210645Z 15011KT 27/18 A2993 RMK A01 T02710181  RH  058%=      5-min Rain = 0
KWA1 210646Z 15012KT 27/18 A2993 RMK A01 T02710181  RH  058%=      5-min Rain = 0
KWA1 210647Z 15013KT 27/18 A2993 RMK A01 T02700182  RH  058%=      5-min Rain = 0
KWA1 210648Z 15012KT 27/18 A2993 RMK A01 T02700182  RH  058%=      5-min Rain = 0
KWA1 210649Z 15012KT 27/18 A2993 RMK A01 T02700182  RH  058%=      5-min Rain = 0
KWA1 210650Z 15011KT 27/18 A2993 RMK A01 T02700182  RH  058%=      5-min Rain = 0
KWA1 210651Z 15011KT 27/18 A2993 RMK A01 T02700181  RH  058%=      5-min Rain = 0
KWA1 210652Z 15012KT 27/18 A2993 RMK A01 T02690181  RH  059%=      5-min Rain = 0
KWA1 210653Z 15011KT 27/18 A2993 RMK A01 T02690182  RH  059%=      5-min Rain = 0
KWA1 210654Z 15012KT 27/18 A2993 RMK A01 T02680182  RH  059%=      5-min Rain = 0
KWA1 210655Z 15011KT 27/18 A2993 RMK A01 T02690182  RH  059%=      5-min Rain = 0
KWA1 210656Z 15011KT 27/18 A2993 RMK A01 T02680182  RH  059%=      5-min Rain = 0
KWA1 210657Z 15012KT 27/18 A2993 RMK A01 T02680182  RH  059%=      5-min Rain = 0
KWA1 210658Z 15011KT 27/18 A2993 RMK A01 T02680183  RH  059%=      5-min Rain = 0
KWA1 210659Z 15012KT 27/18 A2993 RMK A01 T02680182  RH  059%=      5-min Rain = 0
KWA1 210700Z 15011KT 27/18 A2993 RMK A01 T02680183  RH  059%=      5-min Rain = 0
KWA1 210701Z 15012KT 27/18 A2993 RMK A01 T02680183  RH  060%=      5-min Rain = 0
KWA1 210702Z 15011KT 27/18 A2993 RMK A01 T02670183  RH  060%=      5-min Rain = 0
KWA1 210703Z 15012KT 27/18 A2993 RMK A01 T02670183  RH  060%=      5-min Rain = 0
KWA1 210704Z 15012KT 27/18 A2993 RMK A01 T02670183  RH  060%=      5-min Rain = 0
KWA1 210705Z 15012KT 27/18 A2993 RMK A01 T02670183  RH  060%=      5-min Rain = 0
KWA1 210706Z 15011KT 27/18 A2993 RMK A01 T02670183  RH  060%=      5-min Rain = 0
KWA1 210707Z 15011KT 27/18 A2993 RMK A01 T02660183  RH  060%=      5-min Rain = 0
KWA1 210708Z 15011KT 27/18 A2993 RMK A01 T02660183  RH  060%=      5-min Rain = 0
KWA1 210709Z 15010KT 27/18 A2993 RMK A01 T02660183  RH  060%=      5-min Rain = 0
KWA1 210710Z 16010KT 27/18 A2993 RMK A01 T02650183  RH  061%=      5-min Rain = 0
KWA1 210711Z 15012KT 27/18 A2993 RMK A01 T02650184  RH  061%=      5-min Rain = 0
KWA1 210712Z 15011KT 27/18 A2993 RMK A01 T02650184  RH  061%=      5-min Rain = 0
KWA1 210713Z 16012KT 27/18 A2993 RMK A01 T02650184  RH  061%=      5-min Rain = 0
KWA1 210714Z 15011KT 27/18 A2993 RMK A01 T02650184  RH  061%=      5-min Rain = 0
KWA1 210715Z 15010KT 27/18 A2993 RMK A01 T02650184  RH  061%=      5-min Rain = 0
KWA1 210716Z 15011G16KT 27/18 A2993 RMK A01 T02650184  RH  061%=      5-min Rain = 0
KWA1 210717Z 16012KT 26/18 A2993 RMK A01 T02640184  RH  062%=      5-min Rain = 0
KWA1 210718Z 16011KT 26/19 A2993 RMK A01 T02640185  RH  062%=      5-min Rain = 0
KWA1 210719Z 16012KT 26/19 A2993 RMK A01 T02640185  RH  062%=      5-min Rain = 0
KWA1 210720Z 15010KT 26/19 A2993 RMK A01 T02640185  RH  062%=      5-min Rain = 0
KWA1 210721Z 16011KT 26/18 A2993 RMK A01 T02630184  RH  062%=      5-min Rain = 0
KWA1 210722Z 15010KT 26/19 A2993 RMK A01 T02630185  RH  062%=      5-min Rain = 0
KWA1 210723Z 16011KT 26/18 A2992 RMK A01 T02630184  RH  062%=      5-min Rain = 0
KWA1 210724Z 16011KT 26/19 A2992 RMK A01 T02620185  RH  062%=      5-min Rain = 0
KWA1 210725Z 16011KT 26/19 A2992 RMK A01 T02620185  RH  062%=      5-min Rain = 0
KWA1 210726Z 16011KT 26/19 A2992 RMK A01 T02620185  RH  063%=      5-min Rain = 0
KWA1 210727Z 15011KT 26/19 A2992 RMK A01 T02610185  RH  063%=      5-min Rain = 0
KWA1 210728Z 15011KT 26/19 A2992 RMK A01 T02610185  RH  063%=      5-min Rain = 0
KWA1 210729Z 15011KT 26/19 A2992 RMK A01 T02610185  RH  063%=      5-min Rain = 0
KWA1 210730Z 15011KT 26/19 A2992 RMK A01 T02610186  RH  063%=      5-min Rain = 0
KWA1 210731Z 16012KT 26/19 A2992 RMK A01 T02610186  RH  063%=      5-min Rain = 0
KWA1 210732Z 16011KT 26/19 A2992 RMK A01 T02620186  RH  063%=      5-min Rain = 0
KWA1 210733Z 15011KT 26/19 A2992 RMK A01 T02610186  RH  063%=      5-min Rain = 0
KWA1 210734Z 16011KT 26/19 A2992 RMK A01 T02610186  RH  063%=      5-min Rain = 0
KWA1 210735Z 16011KT 26/19 A2992 RMK A01 T02610186  RH  064%=      5-min Rain = 0
KWA1 210736Z 15011KT 26/19 A2992 RMK A01 T02610186  RH  064%=      5-min Rain = 0
KWA1 210737Z 15011KT 26/19 A2992 RMK A01 T02610187  RH  064%=      5-min Rain = 0
KWA1 210738Z 15011KT 26/19 A2992 RMK A01 T02610187  RH  064%=      5-min Rain = 0
KWA1 210739Z 15011KT 26/19 A2992 RMK A01 T02610187  RH  064%=      5-min Rain = 0
KWA1 210740Z 15011KT 26/19 A2992 RMK A01 T02610187  RH  064%=      5-min Rain = 0
KWA1 210741Z 15012KT 26/19 A2992 RMK A01 T02610187  RH  064%=      5-min Rain = 0
KWA1 210742Z 15010KT 26/19 A2992 RMK A01 T02610187  RH  064%=      5-min Rain = 0
KWA1 210743Z 15011KT 26/19 A2992 RMK A01 T02610188  RH  064%=      5-min Rain = 0
KWA1 210744Z 16009KT 26/19 A2992 RMK A01 T02610188  RH  064%=      5-min Rain = 0
KWA1 210745Z 15010KT 26/19 A2992 RMK A01 T02600188  RH  064%=      5-min Rain = 0
KWA1 210746Z 15011KT 26/19 A2992 RMK A01 T02600188  RH  065%=      5-min Rain = 0
KWA1 210747Z 15011KT 26/19 A2992 RMK A01 T02600188  RH  065%=      5-min Rain = 0
KWA1 210748Z 16010KT 26/19 A2992 RMK A01 T02600188  RH  065%=      5-min Rain = 0
KWA1 210749Z 16010KT 26/19 A2992 RMK A01 T02600188  RH  065%=      5-min Rain = 0
KWA1 210750Z 15009KT 26/19 A2993 RMK A01 T02600189  RH  065%=      5-min Rain = 0
KWA1 210751Z 15010KT 26/19 A2993 RMK A01 T02600189  RH  065%=      5-min Rain = 0
KWA1 210752Z 15010KT 26/19 A2993 RMK A01 T02590189  RH  065%=      5-min Rain = 0
KWA1 210753Z 16010KT 26/19 A2993 RMK A01 T02590189  RH  065%=      5-min Rain = 0
KWA1 210754Z 15010KT 26/19 A2993 RMK A01 T02590189  RH  065%=      5-min Rain = 0
KWA1 210755Z 15009KT 26/19 A2993 RMK A01 T02590190  RH  065%=      5-min Rain = 0
KWA1 210756Z 16011KT 26/19 A2993 RMK A01 T02590190  RH  065%=      5-min Rain = 0
KWA1 210757Z 16012KT 26/19 A2993 RMK A01 T02590190  RH  066%=      5-min Rain = 0
KWA1 210758Z 16011KT 26/19 A2993 RMK A01 T02590190  RH  066%=      5-min Rain = 0
KWA1 210759Z 15009KT 26/19 A2993 RMK A01 T02590190  RH  066%=      5-min Rain = 0
KWA1 210800Z 16010KT 26/19 A2993 RMK A01 T02590190  RH  066%=      5-min Rain = 0
KWA1 210801Z 15011KT 26/19 A2993 RMK A01 T02590190  RH  066%=      5-min Rain = 0
KWA1 210802Z 16012KT 26/19 A2993 RMK A01 T02590190  RH  066%=      5-min Rain = 0
KWA1 210803Z 16010KT 26/19 A2993 RMK A01 T02590191  RH  066%=      5-min Rain = 0
KWA1 210804Z 15010KT 26/19 A2993 RMK A01 T02590190  RH  066%=      5-min Rain = 0
KWA1 210805Z 15011KT 26/19 A2993 RMK A01 T02590191  RH  066%=      5-min Rain = 0
KWA1 210806Z 15012KT 26/19 A2993 RMK A01 T02580191  RH  066%=      5-min Rain = 0
KWA1 210807Z 15011KT 26/19 A2993 RMK A01 T02590191  RH  066%=      5-min Rain = 0
KWA1 210808Z 16011KT 26/19 A2993 RMK A01 T02590191  RH  066%=      5-min Rain = 0
KWA1 210809Z 15010KT 26/19 A2993 RMK A01 T02590191  RH  066%=      5-min Rain = 0
KWA1 210810Z 15011KT 26/19 A2993 RMK A01 T02590191  RH  066%=      5-min Rain = 0
KWA1 210811Z 16011KT 26/19 A2993 RMK A01 T02590191  RH  066%=      5-min Rain = 0
KWA1 210812Z 15010KT 26/19 A2993 RMK A01 T02590192  RH  066%=      5-min Rain = 0
KWA1 210813Z 15010KT 26/19 A2993 RMK A01 T02590192  RH  067%=      5-min Rain = 0
KWA1 210814Z 16010KT 26/19 A2993 RMK A01 T02590192  RH  067%=      5-min Rain = 0
KWA1 210815Z 16010KT 26/19 A2993 RMK A01 T02580192  RH  067%=      5-min Rain = 0
KWA1 210816Z 15010KT 26/19 A2993 RMK A01 T02580192  RH  067%=      5-min Rain = 0
KWA1 210817Z 16012KT 26/19 A2993 RMK A01 T02580192  RH  067%=      5-min Rain = 0
KWA1 210818Z 16011KT 26/19 A2993 RMK A01 T02580193  RH  067%=      5-min Rain = 0
KWA1 210819Z 16009KT 26/19 A2993 RMK A01 T02570192  RH  067%=      5-min Rain = 0
KWA1 210820Z 16011KT 26/19 A2993 RMK A01 T02570192  RH  067%=      5-min Rain = 0
KWA1 210821Z 15011KT 26/19 A2993 RMK A01 T02570193  RH  068%=      5-min Rain = 0
KWA1 210822Z 16010KT 26/19 A2993 RMK A01 T02570193  RH  068%=      5-min Rain = 0
KWA1 210823Z 16010KT 26/19 A2993 RMK A01 T02570193  RH  068%=      5-min Rain = 0
KWA1 210824Z 16010KT 26/19 A2993 RMK A01 T02560193  RH  068%=      5-min Rain = 0
KWA1 210825Z 16011KT 26/19 A2993 RMK A01 T02560193  RH  068%=      5-min Rain = 0
KWA1 210826Z 16010KT 26/19 A2993 RMK A01 T02560193  RH  068%=      5-min Rain = 0
KWA1 210827Z 16011KT 26/19 A2993 RMK A01 T02560193  RH  068%=      5-min Rain = 0
KWA1 210828Z 16010KT 26/19 A2993 RMK A01 T02560194  RH  069%=      5-min Rain = 0
KWA1 210829Z 16011KT 26/19 A2993 RMK A01 T02560194  RH  069%=      5-min Rain = 0
KWA1 210830Z 16010KT 26/19 A2993 RMK A01 T02560194  RH  069%=      5-min Rain = 0
KWA1 210831Z 16012KT 26/19 A2993 RMK A01 T02560194  RH  069%=      5-min Rain = 0
KWA1 210832Z 16012KT 26/19 A2993 RMK A01 T02560194  RH  069%=      5-min Rain = 0
KWA1 210833Z 16011KT 26/20 A2993 RMK A01 T02560195  RH  069%=      5-min Rain = 0
KWA1 210834Z 17010KT 26/19 A2993 RMK A01 T02560194  RH  069%=      5-min Rain = 0
KWA1 210835Z 16010KT 26/19 A2993 RMK A01 T02550194  RH  069%=      5-min Rain = 0
KWA1 210836Z 17011KT 26/20 A2993 RMK A01 T02550195  RH  069%=      5-min Rain = 0
KWA1 210837Z 16010KT 26/19 A2993 RMK A01 T02550194  RH  069%=      5-min Rain = 0
KWA1 210838Z 16010KT 26/20 A2993 RMK A01 T02560195  RH  069%=      5-min Rain = 0
KWA1 210839Z 16011KT 26/20 A2993 RMK A01 T02550195  RH  069%=      5-min Rain = 0
KWA1 210840Z 16011KT 26/20 A2993 RMK A01 T02550195  RH  069%=      5-min Rain = 0
KWA1 210841Z 17010KT 26/20 A2993 RMK A01 T02550195  RH  069%=      5-min Rain = 0
KWA1 210842Z 16010KT 26/20 A2993 RMK A01 T02550195  RH  069%=      5-min Rain = 0
KWA1 210843Z 16009KT 25/20 A2993 RMK A01 T02540195  RH  069%=      5-min Rain = 0
KWA1 210844Z 17010KT 25/20 A2993 RMK A01 T02540195  RH  070%=      5-min Rain = 0
KWA1 210845Z 16009KT 25/20 A2993 RMK A01 T02540195  RH  070%=      5-min Rain = 0
KWA1 210846Z 17010KT 25/20 A2993 RMK A01 T02540195  RH  070%=      5-min Rain = 0
KWA1 210847Z 16010KT 25/20 A2993 RMK A01 T02540195  RH  070%=      5-min Rain = 0
KWA1 210848Z 16009KT 25/20 A2993 RMK A01 T02540195  RH  070%=      5-min Rain = 0
KWA1 210849Z 17009KT 25/20 A2993 RMK A01 T02540195  RH  070%=      5-min Rain = 0
KWA1 210850Z 17009KT 25/20 A2993 RMK A01 T02530195  RH  070%=      5-min Rain = 0
KWA1 210851Z 16009KT 25/20 A2993 RMK A01 T02530195  RH  070%=      5-min Rain = 0
KWA1 210852Z 17010KT 25/20 A2993 RMK A01 T02530195  RH  070%=      5-min Rain = 0
KWA1 210853Z 17009KT 25/20 A2993 RMK A01 T02530195  RH  070%=      5-min Rain = 0
KWA1 210854Z 16010KT 25/20 A2993 RMK A01 T02530195  RH  070%=      5-min Rain = 0
KWA1 210855Z 16010KT 25/20 A2993 RMK A01 T02530195  RH  070%=      5-min Rain = 0
KWA1 210856Z 16009KT 25/20 A2993 RMK A01 T02530196  RH  070%=      5-min Rain = 0
KWA1 210857Z 17009KT 25/20 A2993 RMK A01 T02530195  RH  070%=      5-min Rain = 0
KWA1 210858Z 17008KT 25/20 A2993 RMK A01 T02520195  RH  070%=      5-min Rain = 0
KWA1 210859Z 17008KT 25/20 A2993 RMK A01 T02520195  RH  071%=      5-min Rain = 0
KWA1 210900Z 17008KT 25/20 A2993 RMK A01 T02520195  RH  071%=      5-min Rain = 0
KWA1 210901Z 17008KT 25/20 A2993 RMK A01 T02510195  RH  071%=      5-min Rain = 0
KWA1 210902Z 17009KT 25/20 A2993 RMK A01 T02510195  RH  071%=      5-min Rain = 0
KWA1 210903Z 17007KT 25/20 A2993 RMK A01 T02510195  RH  071%=      5-min Rain = 0
KWA1 210904Z 17008KT 25/20 A2993 RMK A01 T02510195  RH  071%=      5-min Rain = 0
KWA1 210905Z 17008KT 25/20 A2993 RMK A01 T02510195  RH  071%=      5-min Rain = 0
KWA1 210906Z 17008KT 25/20 A2993 RMK A01 T02510195  RH  071%=      5-min Rain = 0
KWA1 210907Z 17008KT 25/20 A2993 RMK A01 T02510195  RH  071%=      5-min Rain = 0
KWA1 210908Z 18008KT 25/20 A2993 RMK A01 T02510195  RH  071%=      5-min Rain = 0
KWA1 210909Z 18007KT 25/20 A2993 RMK A01 T02500195  RH  071%=      5-min Rain = 0
KWA1 210910Z 18008KT 25/20 A2993 RMK A01 T02500195  RH  071%=      5-min Rain = 0
KWA1 210911Z 18010KT 25/20 A2993 RMK A01 T02500195  RH  072%=      5-min Rain = 0
KWA1 210912Z 17009KT 25/20 A2993 RMK A01 T02500195  RH  071%=      5-min Rain = 0
KWA1 210913Z 18008KT 25/20 A2993 RMK A01 T02510195  RH  071%=      5-min Rain = 0
KWA1 210914Z 18008KT 25/20 A2993 RMK A01 T02500195  RH  071%=      5-min Rain = 0
KWA1 210915Z 18007KT 25/20 A2993 RMK A01 T02500195  RH  071%=      5-min Rain = 0
KWA1 210916Z 18008KT 25/20 A2993 RMK A01 T02500195  RH  071%=      5-min Rain = 0
KWA1 210917Z 18009KT 25/20 A2993 RMK A01 T02500195  RH  072%=      5-min Rain = 0
KWA1 210918Z 18008KT 25/20 A2993 RMK A01 T02500195  RH  072%=      5-min Rain = 0
KWA1 210919Z 18008KT 25/20 A2993 RMK A01 T02500195  RH  072%=      5-min Rain = 0
KWA1 210920Z 18008KT 25/20 A2993 RMK A01 T02500195  RH  072%=      5-min Rain = 0
KWA1 210921Z 18009KT 25/20 A2993 RMK A01 T02500195  RH  072%=      5-min Rain = 0
KWA1 210922Z 18009KT 25/20 A2993 RMK A01 T02490195  RH  072%=      5-min Rain = 0
KWA1 210923Z 18008KT 25/20 A2993 RMK A01 T02500195  RH  072%=      5-min Rain = 0
KWA1 210924Z 18008KT 25/20 A2993 RMK A01 T02500195  RH  072%=      5-min Rain = 0
KWA1 210925Z 18008KT 25/20 A2993 RMK A01 T02490195  RH  072%=      5-min Rain = 0
KWA1 210926Z 18008KT 25/20 A2993 RMK A01 T02490195  RH  072%=      5-min Rain = 0
KWA1 210927Z 18009KT 25/20 A2993 RMK A01 T02490195  RH  072%=      5-min Rain = 0
KWA1 210928Z 18008KT 25/20 A2993 RMK A01 T02490195  RH  072%=      5-min Rain = 0
KWA1 210929Z 18009KT 25/19 A2993 RMK A01 T02490194  RH  072%=      5-min Rain = 0
KWA1 210930Z 18009KT 25/20 A2993 RMK A01 T02490195  RH  072%=      5-min Rain = 0
KWA1 210931Z 18009KT 25/20 A2993 RMK A01 T02490195  RH  072%=      5-min Rain = 0
KWA1 210932Z 18008KT 25/19 A2993 RMK A01 T02490194  RH  072%=      5-min Rain = 0
KWA1 210933Z 18009KT 25/20 A2993 RMK A01 T02480195  RH  072%=      5-min Rain = 0
KWA1 210934Z 18010KT 25/19 A2993 RMK A01 T02480194  RH  072%=      5-min Rain = 0
KWA1 210935Z 18009KT 25/20 A2993 RMK A01 T02480195  RH  072%=      5-min Rain = 0
KWA1 210936Z 18009KT 25/19 A2993 RMK A01 T02480194  RH  072%=      5-min Rain = 0
KWA1 210937Z 17009KT 25/19 A2993 RMK A01 T02480194  RH  072%=      5-min Rain = 0
KWA1 210938Z 18010KT 25/19 A2993 RMK A01 T02480194  RH  072%=      5-min Rain = 0
KWA1 210939Z 18009KT 25/19 A2993 RMK A01 T02480194  RH  072%=      5-min Rain = 0
KWA1 210940Z 18009KT 25/19 A2993 RMK A01 T02480194  RH  072%=      5-min Rain = 0
KWA1 210941Z 18009KT 25/19 A2993 RMK A01 T02480194  RH  072%=      5-min Rain = 0
KWA1 210942Z 18011KT 25/19 A2993 RMK A01 T02480194  RH  072%=      5-min Rain = 0
KWA1 210943Z 17011KT 25/19 A2993 RMK A01 T02480194  RH  072%=      5-min Rain = 0
KWA1 210944Z 17010KT 25/19 A2993 RMK A01 T02480194  RH  072%=      5-min Rain = 0
KWA1 210945Z 17008KT 25/19 A2993 RMK A01 T02480194  RH  072%=      5-min Rain = 0
KWA1 210946Z 18009KT 25/19 A2993 RMK A01 T02480194  RH  072%=      5-min Rain = 0
KWA1 210947Z 17009KT 25/19 A2993 RMK A01 T02480194  RH  072%=      5-min Rain = 0
KWA1 210948Z 18010KT 25/19 A2993 RMK A01 T02480194  RH  072%=      5-min Rain = 0
KWA1 210949Z 17009KT 25/19 A2993 RMK A01 T02470193  RH  072%=      5-min Rain = 0
KWA1 210950Z 17008KT 25/19 A2993 RMK A01 T02470193  RH  072%=      5-min Rain = 0
KWA1 210951Z 17008KT 25/19 A2993 RMK A01 T02470193  RH  072%=      5-min Rain = 0
KWA1 210952Z 18008KT 25/19 A2993 RMK A01 T02470193  RH  072%=      5-min Rain = 0
KWA1 210953Z 17008KT 25/19 A2994 RMK A01 T02470193  RH  072%=      5-min Rain = 0
KWA1 210954Z 18008KT 25/19 A2994 RMK A01 T02460193  RH  072%=      5-min Rain = 0
KWA1 210955Z 18008KT 25/19 A2994 RMK A01 T02460193  RH  072%=      5-min Rain = 0
KWA1 210956Z 17008KT 25/19 A2994 RMK A01 T02460192  RH  072%=      5-min Rain = 0
KWA1 210957Z 17008KT 25/19 A2994 RMK A01 T02460192  RH  072%=      5-min Rain = 0
KWA1 210958Z 17009KT 25/19 A2994 RMK A01 T02460192  RH  072%=      5-min Rain = 0
KWA1 210959Z 17008KT 25/19 A2994 RMK A01 T02450192  RH  072%=      5-min Rain = 0
KWA1 211000Z 17007KT 25/19 A2994 RMK A01 T02460192  RH  072%=      5-min Rain = 0
KWA1 211001Z 17007KT 25/19 A2994 RMK A01 T02460192  RH  072%=      5-min Rain = 0
KWA1 211002Z 17006KT 25/19 A2994 RMK A01 T02450192  RH  072%=      5-min Rain = 0
KWA1 211003Z 17008KT 24/19 A2994 RMK A01 T02440192  RH  072%=      5-min Rain = 0
KWA1 211004Z 17008KT 24/19 A2994 RMK A01 T02440192  RH  073%=      5-min Rain = 0
KWA1 211005Z 17007KT 24/19 A2994 RMK A01 T02440192  RH  073%=      5-min Rain = 0
KWA1 211006Z 17008KT 24/19 A2994 RMK A01 T02440191  RH  072%=      5-min Rain = 0
KWA1 211007Z 17007KT 24/19 A2994 RMK A01 T02440192  RH  073%=      5-min Rain = 0
KWA1 211008Z 17011KT 24/19 A2994 RMK A01 T02440191  RH  073%=      5-min Rain = 0
KWA1 211009Z 17008KT 24/19 A2994 RMK A01 T02440192  RH  072%=      5-min Rain = 0
KWA1 211010Z 17009KT 24/19 A2994 RMK A01 T02440191  RH  072%=      5-min Rain = 0
KWA1 211011Z 17008KT 24/19 A2994 RMK A01 T02440191  RH  072%=      5-min Rain = 0
KWA1 211012Z 17008KT 24/19 A2994 RMK A01 T02440191  RH  072%=      5-min Rain = 0
KWA1 211013Z 17009KT 24/19 A2994 RMK A01 T02430191  RH  073%=      5-min Rain = 0
KWA1 211014Z 18007KT 24/19 A2994 RMK A01 T02430191  RH  073%=      5-min Rain = 0
KWA1 211015Z 17008KT 24/19 A2994 RMK A01 T02430191  RH  072%=      5-min Rain = 0
KWA1 211016Z 17007KT 24/19 A2994 RMK A01 T02430191  RH  073%=      5-min Rain = 0
KWA1 211017Z 18008KT 24/19 A2994 RMK A01 T02430191  RH  073%=      5-min Rain = 0
KWA1 211018Z 18008KT 24/19 A2994 RMK A01 T02430191  RH  073%=      5-min Rain = 0
KWA1 211019Z 18007KT 24/19 A2994 RMK A01 T02430191  RH  072%=      5-min Rain = 0
KWA1 211020Z 18007KT 24/19 A2994 RMK A01 T02430191  RH  073%=      5-min Rain = 0
KWA1 211021Z 18008KT 24/19 A2994 RMK A01 T02430191  RH  073%=      5-min Rain = 0
KWA1 211022Z 18008KT 24/19 A2995 RMK A01 T02430191  RH  073%=      5-min Rain = 0
KWA1 211023Z 18006KT 24/19 A2995 RMK A01 T02430191  RH  072%=      5-min Rain = 0
KWA1 211024Z 18007KT 24/19 A2995 RMK A01 T02430191  RH  073%=      5-min Rain = 0
KWA1 211025Z 18009KT 24/19 A2995 RMK A01 T02430191  RH  073%=      5-min Rain = 0
KWA1 211026Z 18007KT 24/19 A2995 RMK A01 T02430191  RH  073%=      5-min Rain = 0
KWA1 211027Z 18007KT 24/19 A2995 RMK A01 T02430191  RH  073%=      5-min Rain = 0
KWA1 211028Z 18007KT 24/19 A2995 RMK A01 T02420190  RH  073%=      5-min Rain = 0
KWA1 211029Z 18008KT 24/19 A2995 RMK A01 T02420190  RH  073%=      5-min Rain = 0
KWA1 211030Z 18008KT 24/19 A2995 RMK A01 T02410190  RH  073%=      5-min Rain = 0
KWA1 211031Z 18007KT 24/19 A2995 RMK A01 T02410190  RH  073%=      5-min Rain = 0
KWA1 211032Z 18006KT 24/19 A2995 RMK A01 T02410190  RH  073%=      5-min Rain = 0
KWA1 211033Z 18007KT 24/19 A2995 RMK A01 T02400189  RH  073%=      5-min Rain = 0
KWA1 211034Z 18007KT 24/19 A2995 RMK A01 T02400190  RH  073%=      5-min Rain = 0
KWA1 211035Z 18006KT 24/19 A2995 RMK A01 T02400190  RH  073%=      5-min Rain = 0
KWA1 211036Z 18006KT 24/19 A2995 RMK A01 T02400190  RH  074%=      5-min Rain = 0
KWA1 211037Z 18007KT 24/19 A2995 RMK A01 T02390189  RH  074%=      5-min Rain = 0
KWA1 211038Z 18008KT 24/19 A2995 RMK A01 T02390190  RH  074%=      5-min Rain = 0
KWA1 211039Z 18007KT 24/19 A2995 RMK A01 T02390190  RH  074%=      5-min Rain = 0
KWA1 211040Z 18007KT 24/19 A2995 RMK A01 T02390190  RH  074%=      5-min Rain = 0
KWA1 211041Z 18006KT 24/19 A2995 RMK A01 T02390190  RH  074%=      5-min Rain = 0
KWA1 211042Z 18006KT 24/19 A2995 RMK A01 T02390189  RH  074%=      5-min Rain = 0
KWA1 211043Z 18007KT 24/19 A2996 RMK A01 T02380189  RH  074%=      5-min Rain = 0
KWA1 211044Z 18006KT 24/19 A2996 RMK A01 T02380189  RH  074%=      5-min Rain = 0
KWA1 211045Z 17006KT 24/19 A2996 RMK A01 T02380190  RH  074%=      5-min Rain = 0
KWA1 211046Z 18006KT 24/19 A2996 RMK A01 T02370189  RH  074%=      5-min Rain = 0
KWA1 211047Z 18005KT 24/19 A2996 RMK A01 T02370189  RH  074%=      5-min Rain = 0
KWA1 211048Z 17006KT 24/19 A2996 RMK A01 T02360189  RH  075%=      5-min Rain = 0
KWA1 211049Z 18006KT 24/19 A2996 RMK A01 T02360189  RH  075%=      5-min Rain = 0
KWA1 211050Z 18006KT 24/19 A2996 RMK A01 T02350188  RH  075%=      5-min Rain = 0
KWA1 211051Z 18007KT 24/19 A2996 RMK A01 T02350188  RH  075%=      5-min Rain = 0
KWA1 211052Z 18006KT 24/19 A2996 RMK A01 T02350189  RH  075%=      5-min Rain = 0
KWA1 211053Z 18006KT 24/19 A2996 RMK A01 T02360188  RH  075%=      5-min Rain = 0
KWA1 211054Z 17006KT 24/19 A2996 RMK A01 T02360188  RH  075%=      5-min Rain = 0
KWA1 211055Z 18007KT 24/19 A2996 RMK A01 T02350188  RH  075%=      5-min Rain = 0
KWA1 211056Z 18008KT 24/19 A2996 RMK A01 T02350188  RH  075%=      5-min Rain = 0
KWA1 211057Z 17007KT 24/19 A2996 RMK A01 T02360188  RH  075%=      5-min Rain = 0
KWA1 211058Z 18008KT 24/19 A2996 RMK A01 T02360188  RH  074%=      5-min Rain = 0
KWA1 211059Z 18007KT 24/19 A2996 RMK A01 T02360188  RH  075%=      5-min Rain = 0
KWA1 211100Z 18007KT 24/19 A2996 RMK A01 T02360188  RH  074%=      5-min Rain = 0
KWA1 211101Z 18007KT 24/19 A2996 RMK A01 T02350187  RH  074%=      5-min Rain = 0
KWA1 211102Z 18007KT 24/19 A2996 RMK A01 T02350187  RH  075%=      5-min Rain = 0
KWA1 211103Z 18007KT 24/19 A2996 RMK A01 T02350188  RH  075%=      5-min Rain = 0
KWA1 211104Z 18006KT 24/19 A2996 RMK A01 T02350187  RH  075%=      5-min Rain = 0
KWA1 211105Z 18006KT 24/19 A2996 RMK A01 T02350187  RH  075%=      5-min Rain = 0
KWA1 211106Z 18006KT 23/19 A2996 RMK A01 T02340187  RH  075%=      5-min Rain = 0
KWA1 211107Z 18006KT 23/19 A2996 RMK A01 T02340187  RH  075%=      5-min Rain = 0
KWA1 211108Z 18007KT 23/19 A2996 RMK A01 T02340187  RH  075%=      5-min Rain = 0
KWA1 211109Z 18006KT 23/19 A2996 RMK A01 T02340187  RH  075%=      5-min Rain = 0
KWA1 211110Z 18007KT 23/19 A2996 RMK A01 T02340187  RH  075%=      5-min Rain = 0
KWA1 211111Z 18007KT 23/19 A2996 RMK A01 T02330187  RH  075%=      5-min Rain = 0
KWA1 211112Z 18006KT 23/19 A2996 RMK A01 T02330186  RH  075%=      5-min Rain = 0
KWA1 211113Z 18006KT 23/19 A2996 RMK A01 T02330186  RH  075%=      5-min Rain = 0
KWA1 211114Z 18006KT 23/19 A2996 RMK A01 T02320186  RH  075%=      5-min Rain = 0
KWA1 211115Z 18006KT 23/19 A2996 RMK A01 T02320186  RH  075%=      5-min Rain = 0
KWA1 211116Z 18006KT 23/19 A2996 RMK A01 T02310186  RH  076%=      5-min Rain = 0
KWA1 211117Z 18006KT 23/19 A2996 RMK A01 T02310186  RH  075%=      5-min Rain = 0
KWA1 211118Z 18007KT 23/19 A2996 RMK A01 T02310185  RH  075%=      5-min Rain = 0
KWA1 211119Z 18006KT 23/19 A2996 RMK A01 T02310186  RH  076%=      5-min Rain = 0
KWA1 211120Z 18006KT 23/19 A2996 RMK A01 T02310186  RH  076%=      5-min Rain = 0
KWA1 211121Z 18005KT 23/19 A2996 RMK A01 T02310186  RH  076%=      5-min Rain = 0
KWA1 211122Z 18005KT 23/19 A2996 RMK A01 T02300185  RH  076%=      5-min Rain = 0
KWA1 211123Z 18005KT 23/19 A2996 RMK A01 T02290185  RH  076%=      5-min Rain = 0
KWA1 211124Z 18005KT 23/19 A2996 RMK A01 T02280185  RH  077%=      5-min Rain = 0
KWA1 211125Z 18006KT 23/19 A2996 RMK A01 T02270185  RH  077%=      5-min Rain = 0
KWA1 211126Z 18005KT 23/19 A2996 RMK A01 T02270185  RH  077%=      5-min Rain = 0
KWA1 211127Z 18005KT 23/19 A2996 RMK A01 T02270185  RH  077%=      5-min Rain = 0
KWA1 211128Z 18005KT 23/19 A2996 RMK A01 T02270185  RH  077%=      5-min Rain = 0
KWA1 211129Z 18005KT 23/19 A2996 RMK A01 T02270185  RH  077%=      5-min Rain = 0
KWA1 211130Z 18005KT 23/19 A2996 RMK A01 T02270185  RH  077%=      5-min Rain = 0
KWA1 211131Z 18006KT 23/19 A2996 RMK A01 T02270185  RH  077%=      5-min Rain = 0
KWA1 211132Z 18005KT 23/19 A2996 RMK A01 T02270185  RH  077%=      5-min Rain = 0
KWA1 211133Z 17005KT 23/19 A2996 RMK A01 T02270185  RH  077%=      5-min Rain = 0
KWA1 211134Z 17005KT 23/19 A2996 RMK A01 T02270185  RH  077%=      5-min Rain = 0
KWA1 211135Z 17006KT 23/19 A2996 RMK A01 T02270185  RH  077%=      5-min Rain = 0
KWA1 211136Z 17006KT 23/19 A2996 RMK A01 T02270186  RH  078%=      5-min Rain = 0
KWA1 211137Z 17006KT 23/19 A2996 RMK A01 T02260186  RH  078%=      5-min Rain = 0
KWA1 211138Z 17006KT 23/19 A2996 RMK A01 T02260186  RH  078%=      5-min Rain = 0
KWA1 211139Z 17005KT 23/19 A2996 RMK A01 T02260185  RH  078%=      5-min Rain = 0
KWA1 211140Z 17006KT 23/19 A2996 RMK A01 T02260185  RH  078%=      5-min Rain = 0
KWA1 211141Z 17006KT 23/19 A2996 RMK A01 T02250185  RH  078%=      5-min Rain = 0
KWA1 211142Z 17006KT 23/19 A2996 RMK A01 T02260186  RH  078%=      5-min Rain = 0
KWA1 211143Z 17006KT 23/19 A2996 RMK A01 T02250185  RH  078%=      5-min Rain = 0
KWA1 211144Z 17006KT 23/19 A2996 RMK A01 T02250186  RH  078%=      5-min Rain = 0
KWA1 211145Z 16006KT 23/19 A2996 RMK A01 T02250185  RH  078%=      5-min Rain = 0
KWA1 211146Z 16006KT 23/19 A2996 RMK A01 T02250185  RH  078%=      5-min Rain = 0
KWA1 211147Z 16007KT 23/19 A2996 RMK A01 T02250185  RH  078%=      5-min Rain = 0
KWA1 211148Z 17007KT 23/19 A2996 RMK A01 T02250185  RH  078%=      5-min Rain = 0
KWA1 211149Z 16006KT 23/18 A2996 RMK A01 T02250184  RH  078%=      5-min Rain = 0
KWA1 211150Z 17006KT 23/18 A2996 RMK A01 T02250184  RH  078%=      5-min Rain = 0
KWA1 211151Z 16006KT 23/19 A2996 RMK A01 T02250185  RH  078%=      5-min Rain = 0
KWA1 211152Z 17006KT 23/18 A2996 RMK A01 T02250184  RH  078%=      5-min Rain = 0
KWA1 211153Z 16005KT 23/18 A2996 RMK A01 T02250184  RH  078%=      5-min Rain = 0
KWA1 211154Z 17006KT 22/18 A2996 RMK A01 T02240184  RH  078%=      5-min Rain = 0
KWA1 211155Z 17006KT 22/18 A2996 RMK A01 T02240184  RH  078%=      5-min Rain = 0
KWA1 211156Z 17007KT 22/18 A2996 RMK A01 T02240183  RH  078%=      5-min Rain = 0
KWA1 211157Z 18006KT 22/18 A2996 RMK A01 T02240184  RH  078%=      5-min Rain = 0
KWA1 211158Z 18006KT 23/18 A2996 RMK A01 T02250183  RH  077%=      5-min Rain = 0
KWA1 211159Z 17007KT 23/18 A2996 RMK A01 T02250183  RH  077%=      5-min Rain = 0
KWA1 211200Z 17008KT 23/18 A2996 RMK A01 T02260184  RH  077%=      5-min Rain = 0
KWA1 211201Z 17008KT 23/18 A2996 RMK A01 T02260184  RH  077%=      5-min Rain = 0
KWA1 211202Z 17008KT 23/18 A2996 RMK A01 T02260183  RH  077%=      5-min Rain = 0
KWA1 211203Z 17008KT 23/18 A2997 RMK A01 T02270183  RH  077%=      5-min Rain = 0
KWA1 211204Z 17007KT 23/18 A2997 RMK A01 T02270184  RH  077%=      5-min Rain = 0
KWA1 211205Z 17007KT 23/18 A2997 RMK A01 T02270183  RH  076%=      5-min Rain = 0
KWA1 211206Z 16006KT 23/18 A2997 RMK A01 T02260183  RH  077%=      5-min Rain = 0
KWA1 211207Z 17006KT 23/18 A2997 RMK A01 T02260183  RH  077%=      5-min Rain = 0
KWA1 211208Z 17006KT 22/18 A2997 RMK A01 T02240182  RH  077%=      5-min Rain = 0
KWA1 211209Z 17006KT 22/18 A2997 RMK A01 T02240182  RH  077%=      5-min Rain = 0
KWA1 211210Z 16006KT 22/18 A2997 RMK A01 T02230182  RH  077%=      5-min Rain = 0
KWA1 211211Z 16006KT 22/18 A2997 RMK A01 T02230182  RH  077%=      5-min Rain = 0
KWA1 211212Z 16005KT 22/18 A2997 RMK A01 T02230182  RH  077%=      5-min Rain = 0
KWA1 211213Z 16005KT 22/18 A2997 RMK A01 T02230182  RH  078%=      5-min Rain = 0
KWA1 211214Z 16005KT 22/18 A2997 RMK A01 T02220182  RH  078%=      5-min Rain = 0
KWA1 211215Z 16005KT 22/18 A2997 RMK A01 T02220182  RH  078%=      5-min Rain = 0
KWA1 211216Z 16005KT 22/18 A2997 RMK A01 T02220181  RH  078%=      5-min Rain = 0
KWA1 211217Z 16005KT 22/18 A2997 RMK A01 T02220182  RH  078%=      5-min Rain = 0
KWA1 211218Z 16005KT 22/18 A2997 RMK A01 T02220182  RH  078%=      5-min Rain = 0
KWA1 211219Z 15005KT 22/18 A2997 RMK A01 T02220181  RH  078%=      5-min Rain = 0
KWA1 211220Z 16005KT 22/18 A2997 RMK A01 T02220182  RH  078%=      5-min Rain = 0
KWA1 211221Z 16005KT 22/18 A2997 RMK A01 T02230182  RH  077%=      5-min Rain = 0
KWA1 211222Z 16006KT 22/18 A2997 RMK A01 T02230182  RH  077%=      5-min Rain = 0
KWA1 211223Z 15006KT 22/18 A2997 RMK A01 T02240182  RH  077%=      5-min Rain = 0
KWA1 211224Z 15006KT 22/18 A2997 RMK A01 T02240182  RH  077%=      5-min Rain = 0
KWA1 211225Z 16006KT 23/18 A2997 RMK A01 T02250182  RH  077%=      5-min Rain = 0
KWA1 211226Z 15006KT 23/18 A2997 RMK A01 T02260182  RH  076%=      5-min Rain = 0
KWA1 211227Z 16006KT 23/18 A2997 RMK A01 T02260182  RH  076%=      5-min Rain = 0
KWA1 211228Z 16006KT 23/18 A2997 RMK A01 T02260182  RH  076%=      5-min Rain = 0
KWA1 211229Z 16006KT 23/18 A2997 RMK A01 T02270182  RH  076%=      5-min Rain = 0
KWA1 211230Z 16006KT 23/18 A2997 RMK A01 T02270182  RH  076%=      5-min Rain = 0
KWA1 211231Z 16006KT 23/18 A2997 RMK A01 T02280182  RH  075%=      5-min Rain = 0
KWA1 211232Z 16006KT 23/18 A2997 RMK A01 T02280182  RH  075%=      5-min Rain = 0
KWA1 211233Z 16006KT 23/18 A2997 RMK A01 T02290182  RH  075%=      5-min Rain = 0
KWA1 211234Z 16007KT 23/18 A2997 RMK A01 T02290182  RH  075%=      5-min Rain = 0
KWA1 211235Z 16007KT 23/18 A2997 RMK A01 T02300182  RH  075%=      5-min Rain = 0
KWA1 211236Z 16007KT 23/18 A2997 RMK A01 T02300182  RH  074%=      5-min Rain = 0
KWA1 211237Z 16006KT 23/18 A2997 RMK A01 T02310183  RH  074%=      5-min Rain = 0
KWA1 211238Z 16006KT 23/18 A2997 RMK A01 T02310182  RH  074%=      5-min Rain = 0
KWA1 211239Z 15005KT 23/18 A2997 RMK A01 T02320183  RH  074%=      5-min Rain = 0
KWA1 211240Z 16005KT 23/18 A2997 RMK A01 T02320183  RH  074%=      5-min Rain = 0
KWA1 211241Z 16004KT 23/18 A2997 RMK A01 T02320183  RH  074%=      5-min Rain = 0
KWA1 211242Z 16005KT 23/18 A2997 RMK A01 T02320183  RH  074%=      5-min Rain = 0
KWA1 211243Z 16006KT 23/18 A2997 RMK A01 T02330183  RH  074%=      5-min Rain = 0
KWA1 211244Z 15006KT 23/18 A2997 RMK A01 T02330183  RH  073%=      5-min Rain = 0
KWA1 211245Z 17005KT 23/18 A2997 RMK A01 T02340183  RH  073%=      5-min Rain = 0
KWA1 211246Z 16005KT 23/18 A2997 RMK A01 T02340183  RH  073%=      5-min Rain = 0
KWA1 211247Z 17005KT 23/18 A2997 RMK A01 T02340183  RH  073%=      5-min Rain = 0
KWA1 211248Z 16005KT 24/18 A2998 RMK A01 T02350184  RH  073%=      5-min Rain = 0
KWA1 211249Z 17006KT 24/18 A2998 RMK A01 T02350183  RH  073%=      5-min Rain = 0
KWA1 211250Z 17006KT 24/18 A2998 RMK A01 T02350183  RH  072%=      5-min Rain = 0
KWA1 211251Z 17005KT 24/18 A2998 RMK A01 T02360183  RH  072%=      5-min Rain = 0
KWA1 211252Z 17005KT 24/18 A2998 RMK A01 T02360183  RH  072%=      5-min Rain = 0
KWA1 211253Z 17006KT 24/18 A2998 RMK A01 T02370184  RH  072%=      5-min Rain = 0
KWA1 211254Z 16008KT 24/18 A2998 RMK A01 T02380183  RH  071%=      5-min Rain = 0
KWA1 211255Z 17007KT 24/18 A2998 RMK A01 T02380184  RH  072%=      5-min Rain = 0
KWA1 211256Z 18006KT 24/18 A2998 RMK A01 T02380184  RH  071%=      5-min Rain = 0
KWA1 211257Z 17006KT 24/18 A2998 RMK A01 T02390184  RH  071%=      5-min Rain = 0
KWA1 211258Z 18006KT 24/18 A2998 RMK A01 T02400184  RH  071%=      5-min Rain = 0
KWA1 211259Z 17009KT 24/18 A2998 RMK A01 T02400184  RH  071%=      5-min Rain = 0
KWA1 211300Z 18008KT 24/18 A2998 RMK A01 T02410183  RH  070%=      5-min Rain = 0
KWA1 211301Z 18007KT 24/18 A2998 RMK A01 T02410183  RH  070%=      5-min Rain = 0
KWA1 211302Z 19007KT 24/18 A2998 RMK A01 T02410183  RH  070%=      5-min Rain = 0
KWA1 211303Z 19009KT 24/18 A2998 RMK A01 T02410183  RH  070%=      5-min Rain = 0
KWA1 211304Z 17008KT 24/18 A2998 RMK A01 T02420184  RH  070%=      5-min Rain = 0
KWA1 211305Z 17007KT 24/18 A2998 RMK A01 T02420183  RH  070%=      5-min Rain = 0
KWA1 211306Z 18006KT 24/18 A2998 RMK A01 T02420184  RH  070%=      5-min Rain = 0
KWA1 211307Z 18008KT 24/18 A2998 RMK A01 T02430184  RH  070%=      5-min Rain = 0
KWA1 211308Z 19007KT 24/18 A2998 RMK A01 T02430183  RH  069%=      5-min Rain = 0
KWA1 211309Z 18006KT 24/18 A2998 RMK A01 T02440184  RH  069%=      5-min Rain = 0
KWA1 211310Z 17008KT 24/18 A2998 RMK A01 T02440184  RH  069%=      5-min Rain = 0
KWA1 211311Z 18009KT 24/18 A2998 RMK A01 T02440184  RH  069%=      5-min Rain = 0
KWA1 211312Z 17007KT 24/18 A2999 RMK A01 T02440182  RH  068%=      5-min Rain = 0
KWA1 211313Z 18007KT 25/18 A2999 RMK A01 T02450183  RH  068%=      5-min Rain = 0
KWA1 211314Z 18009KT 25/18 A2999 RMK A01 T02460182  RH  068%=      5-min Rain = 0
KWA1 211315Z 17007KT 25/18 A2999 RMK A01 T02450183  RH  068%=      5-min Rain = 0
KWA1 211316Z 17007KT 25/18 A2999 RMK A01 T02460184  RH  068%=      5-min Rain = 0
KWA1 211317Z 17006KT 25/18 A2999 RMK A01 T02460183  RH  068%=      5-min Rain = 0
KWA1 211318Z 18005KT 25/18 A2999 RMK A01 T02460184  RH  068%=      5-min Rain = 0
KWA1 211319Z 18007KT 25/18 A2999 RMK A01 T02470184  RH  068%=      5-min Rain = 0
KWA1 211320Z 18008KT 25/18 A2999 RMK A01 T02480183  RH  067%=      5-min Rain = 0
KWA1 211321Z 18008KT 25/18 A2999 RMK A01 T02480183  RH  067%=      5-min Rain = 0
KWA1 211322Z 18007KT 25/18 A2999 RMK A01 T02480183  RH  067%=      5-min Rain = 0
KWA1 211323Z 17007KT 25/18 A2999 RMK A01 T02490184  RH  067%=      5-min Rain = 0
KWA1 211324Z 17007KT 25/18 A2999 RMK A01 T02490184  RH  067%=      5-min Rain = 0
KWA1 211325Z 17008KT 25/18 A2999 RMK A01 T02500183  RH  066%=      5-min Rain = 0
KWA1 211326Z 18009KT 25/18 A2999 RMK A01 T02500183  RH  066%=      5-min Rain = 0
KWA1 211327Z 17007KT 25/18 A2999 RMK A01 T02500182  RH  066%=      5-min Rain = 0
KWA1 211328Z 17007KT 25/18 A2999 RMK A01 T02500182  RH  066%=      5-min Rain = 0
KWA1 211329Z 17008KT 25/18 A2999 RMK A01 T02500183  RH  066%=      5-min Rain = 0
KWA1 211330Z 16008KT 25/18 A2999 RMK A01 T02510184  RH  067%=      5-min Rain = 0
KWA1 211331Z 17009KT 25/19 A2999 RMK A01 T02520185  RH  066%=      5-min Rain = 0
KWA1 211332Z 17009KT 25/18 A2999 RMK A01 T02530183  RH  065%=      5-min Rain = 0
KWA1 211333Z 18008KT 25/18 A2999 RMK A01 T02530183  RH  065%=      5-min Rain = 0
KWA1 211334Z 16006KT 25/18 A2999 RMK A01 T02530183  RH  065%=      5-min Rain = 0
KWA1 211335Z 16008KT 25/18 A2999 RMK A01 T02540184  RH  065%=      5-min Rain = 0
KWA1 211336Z 17008KT 26/18 A2999 RMK A01 T02550184  RH  065%=      5-min Rain = 0
KWA1 211337Z 17008KT 26/19 A2999 RMK A01 T02550186  RH  065%=      5-min Rain = 0
KWA1 211338Z 16010KT 26/19 A2999 RMK A01 T02560185  RH  065%=      5-min Rain = 0
KWA1 211339Z 17008KT 26/18 A2999 RMK A01 T02560184  RH  064%=      5-min Rain = 0
KWA1 211340Z 16008KT 26/19 A2999 RMK A01 T02560185  RH  065%=      5-min Rain = 0
KWA1 211341Z 16009KT 26/19 A2999 RMK A01 T02570185  RH  064%=      5-min Rain = 0
KWA1 211342Z 17010KT 26/18 A2999 RMK A01 T02570184  RH  064%=      5-min Rain = 0
KWA1 211343Z 18010KT 26/18 A2999 RMK A01 T02570184  RH  064%=      5-min Rain = 0
KWA1 211344Z 18008KT 26/18 A2999 RMK A01 T02570183  RH  064%=      5-min Rain = 0
KWA1 211345Z 18007KT 26/18 A2999 RMK A01 T02570184  RH  064%=      5-min Rain = 0
KWA1 211346Z 16007KT 26/19 A2999 RMK A01 T02580187  RH  065%=      5-min Rain = 0
KWA1 211347Z 16008KT 26/19 A2999 RMK A01 T02590186  RH  064%=      5-min Rain = 0
KWA1 211348Z 16006KT 26/19 A2999 RMK A01 T02590186  RH  064%=      5-min Rain = 0
KWA1 211349Z 16006KT 26/19 A2999 RMK A01 T02600187  RH  064%=      5-min Rain = 0
KWA1 211350Z 17007KT 26/19 A2999 RMK A01 T02610189  RH  064%=      5-min Rain = 0
KWA1 211351Z 17007KT 26/19 A2999 RMK A01 T02620187  RH  063%=      5-min Rain = 0
KWA1 211352Z 17006KT 26/19 A2999 RMK A01 T02620187  RH  064%=      5-min Rain = 0
KWA1 211353Z 17006KT 26/19 A30 RMK A01 T02610187  RH  064%=      5-min Rain = 0
KWA1 211354Z 18008KT 26/19 A30 RMK A01 T02620187  RH  063%=      5-min Rain = 0
KWA1 211355Z 17007KT 26/19 A30 RMK A01 T02620185  RH  062%=      5-min Rain = 0
KWA1 211356Z 17006KT 26/19 A30 RMK A01 T02620186  RH  063%=      5-min Rain = 0
KWA1 211357Z 18006KT 26/19 A30 RMK A01 T02620186  RH  063%=      5-min Rain = 0
KWA1 211358Z 18005KT 26/19 A30 RMK A01 T02620187  RH  063%=      5-min Rain = 0
KWA1 211359Z 17005KT 26/19 A30 RMK A01 T02630188  RH  064%=      5-min Rain = 0
KWA1 211400Z 17007KT 26/19 A30 RMK A01 T02640188  RH  063%=      5-min Rain = 0
KWA1 211401Z 18007KT 27/19 A30 RMK A01 T02650186  RH  062%=      5-min Rain = 0
KWA1 211402Z 17006KT 27/19 A30 RMK A01 T02650186  RH  062%=      5-min Rain = 0
KWA1 211403Z 18006KT 27/19 A30 RMK A01 T02650186  RH  062%=      5-min Rain = 0
KWA1 211404Z 18007KT 27/19 A30 RMK A01 T02650186  RH  062%=      5-min Rain = 0
KWA1 211405Z 17009KT 27/19 A30 RMK A01 T02650188  RH  062%=      5-min Rain = 0
KWA1 211406Z 16008KT 27/19 A30 RMK A01 T02670187  RH  061%=      5-min Rain = 0
KWA1 211407Z 16008KT 27/19 A30 RMK A01 T02680186  RH  061%=      5-min Rain = 0
KWA1 211408Z 17007KT 27/19 A30 RMK A01 T02680187  RH  061%=      5-min Rain = 0
KWA1 211409Z 16007KT 27/19 A2999 RMK A01 T02680187  RH  061%=      5-min Rain = 0
KWA1 211410Z 16007KT 27/19 A2999 RMK A01 T02690186  RH  061%=      5-min Rain = 0
KWA1 211411Z 16007KT 27/19 A2999 RMK A01 T02690188  RH  061%=      5-min Rain = 0
KWA1 211412Z 17007KT 27/19 A2999 RMK A01 T02700187  RH  061%=      5-min Rain = 0
KWA1 211413Z 17007KT 27/19 A2999 RMK A01 T02710188  RH  061%=      5-min Rain = 0
KWA1 211414Z 17006KT 27/19 A2999 RMK A01 T02710185  RH  059%=      5-min Rain = 0
KWA1 211415Z 17007KT 27/19 A2999 RMK A01 T02710188  RH  060%=      5-min Rain = 0
KWA1 211416Z 16007KT 27/19 A2999 RMK A01 T02720186  RH  059%=      5-min Rain = 0
KWA1 211417Z 17008KT 27/19 A30 RMK A01 T02720186  RH  059%=      5-min Rain = 0
KWA1 211418Z 17007KT 27/19 A30 RMK A01 T02720186  RH  059%=      5-min Rain = 0
KWA1 211419Z 17008KT 27/19 A30 RMK A01 T02730188  RH  060%=      5-min Rain = 0
KWA1 211420Z 18009KT 27/19 A30 RMK A01 T02740186  RH  059%=      5-min Rain = 0
KWA1 211421Z 19007KT 27/19 A30 RMK A01 T02740185  RH  058%=      5-min Rain = 0
KWA1 211422Z 17006KT 27/19 A30 RMK A01 T02740188  RH  059%=      5-min Rain = 0
KWA1 211423Z 18008KT 28/19 A30 RMK A01 T02750189  RH  059%=      5-min Rain = 0
KWA1 211424Z 19008KT 28/19 A30 RMK A01 T02770188  RH  058%=      5-min Rain = 0
KWA1 211425Z 18007KT 28/19 A30 RMK A01 T02770188  RH  058%=      5-min Rain = 0
KWA1 211426Z 18008KT 28/19 A30 RMK A01 T02780186  RH  057%=      5-min Rain = 0
KWA1 211427Z 16009KT 28/19 A30 RMK A01 T02790188  RH  058%=      5-min Rain = 0
KWA1 211428Z 17009KT 28/19 A30 RMK A01 T02790187  RH  057%=      5-min Rain = 0
KWA1 211429Z 17008KT 28/19 A30 RMK A01 T02800190  RH  058%=      5-min Rain = 0
KWA1 211430Z 18009KT 28/19 A30 RMK A01 T02810188  RH  057%=      5-min Rain = 0
KWA1 211431Z 18008KT 28/19 A30 RMK A01 T02810189  RH  057%=      5-min Rain = 0
KWA1 211432Z 18010KT 28/19 A30 RMK A01 T02810187  RH  056%=      5-min Rain = 0
KWA1 211433Z 20009KT 28/19 A30 RMK A01 T02810187  RH  056%=      5-min Rain = 0
KWA1 211434Z 20010KT 28/19 A30 RMK A01 T02800186  RH  057%=      5-min Rain = 0
KWA1 211435Z 20011KT 28/19 A30 RMK A01 T02790186  RH  057%=      5-min Rain = 0
KWA1 211436Z 19009KT 28/19 A30 RMK A01 T02790188  RH  058%=      5-min Rain = 0
KWA1 211437Z 19010KT 28/19 A30 RMK A01 T02800187  RH  057%=      5-min Rain = 0
KWA1 211438Z 18007KT 28/19 A30 RMK A01 T02800188  RH  057%=      5-min Rain = 0
KWA1 211439Z 18009KT 28/19 A30 RMK A01 T02810189  RH  057%=      5-min Rain = 0
KWA1 211440Z 18010KT 28/19 A30 RMK A01 T02830189  RH  057%=      5-min Rain = 0
KWA1 211441Z 19012KT 29/19 A30 RMK A01 T02850188  RH  056%=      5-min Rain = 0
KWA1 211442Z 19011KT 28/19 A30 RMK A01 T02840188  RH  056%=      5-min Rain = 0
KWA1 211443Z 19011KT 28/19 A30 RMK A01 T02840187  RH  056%=      5-min Rain = 0
KWA1 211444Z 19010KT 28/19 A30 RMK A01 T02830187  RH  056%=      5-min Rain = 0
KWA1 211445Z 18009KT 28/19 A30 RMK A01 T02840188  RH  056%=      5-min Rain = 0
KWA1 211446Z 19008KT 29/19 A30 RMK A01 T02850188  RH  056%=      5-min Rain = 0
KWA1 211447Z 16008KT 29/19 A30 RMK A01 T02860190  RH  056%=      5-min Rain = 0
KWA1 211448Z 17008KT 29/19 A30 RMK A01 T02860188  RH  055%=      5-min Rain = 0
KWA1 211449Z 16009KT 29/19 A30 RMK A01 T02860189  RH  056%=      5-min Rain = 0
KWA1 211450Z 17010KT 29/19 A30 RMK A01 T02850189  RH  056%=      5-min Rain = 0
KWA1 211451Z 18009KT 29/19 A30 RMK A01 T02870189  RH  056%=      5-min Rain = 0
KWA1 211452Z 18009KT 29/19 A30 RMK A01 T02870189  RH  055%=      5-min Rain = 0
KWA1 211453Z 18009KT 29/19 A30 RMK A01 T02880188  RH  055%=      5-min Rain = 0
KWA1 211454Z 18009KT 29/19 A30 RMK A01 T02890188  RH  055%=      5-min Rain = 0
KWA1 211455Z 17010KT 29/19 A30 RMK A01 T02890187  RH  054%=      5-min Rain = 0
KWA1 211456Z 18007KT 29/19 A30 RMK A01 T02890188  RH  055%=      5-min Rain = 0
KWA1 211457Z 17009KT 29/19 A30 RMK A01 T02890189  RH  055%=      5-min Rain = 0
KWA1 211458Z 17010KT 29/19 A30 RMK A01 T02900187  RH  054%=      5-min Rain = 0
KWA1 211459Z 18009KT 29/19 A30 RMK A01 T02890186  RH  054%=      5-min Rain = 0
KWA1 211500Z 19007KT 29/19 A30 RMK A01 T02890190  RH  055%=      5-min Rain = 0
KWA1 211501Z 18007KT 29/19 A30 RMK A01 T02900193  RH  056%=      5-min Rain = 0
KWA1 211502Z 19009KT 29/19 A30 RMK A01 T02920190  RH  054%=      5-min Rain = 0
KWA1 211503Z 19009KT 29/19 A30 RMK A01 T02930187  RH  053%=      5-min Rain = 0
KWA1 211504Z 20008KT 29/19 A30 RMK A01 T02910188  RH  054%=      5-min Rain = 0
KWA1 211505Z 18009KT 29/19 A30 RMK A01 T02920190  RH  054%=      5-min Rain = 0
KWA1 211506Z 18009KT 29/19 A30 RMK A01 T02930190  RH  054%=      5-min Rain = 0
KWA1 211507Z 17007KT 29/19 A30 RMK A01 T02940190  RH  054%=      5-min Rain = 0
KWA1 211508Z 16009KT 30/19 A30 RMK A01 T02960191  RH  053%=      5-min Rain = 0
KWA1 211509Z 19009KT 30/19 A30 RMK A01 T02970192  RH  053%=      5-min Rain = 0
KWA1 211510Z 19007KT 30/19 A30 RMK A01 T02980192  RH  053%=      5-min Rain = 0
KWA1 211511Z 17007KT 30/19 A30 RMK A01 T02980190  RH  052%=      5-min Rain = 0
KWA1 211512Z 17009KT 30/19 A30 RMK A01 T02990191  RH  052%=      5-min Rain = 0
KWA1 211513Z 18010KT 30/19 A30 RMK A01 T02970188  RH  052%=      5-min Rain = 0
KWA1 211514Z 17009KT 30/19 A30 RMK A01 T02960189  RH  052%=      5-min Rain = 0
KWA1 211515Z 18008KT 30/19 A30 RMK A01 T02950189  RH  053%=      5-min Rain = 0
KWA1 211516Z 19011KT 30/19 A30 RMK A01 T02950188  RH  052%=      5-min Rain = 0
KWA1 211517Z 18009KT 30/19 A30 RMK A01 T02960188  RH  052%=      5-min Rain = 0
KWA1 211518Z 17011KT 30/19 A2999 RMK A01 T02960188  RH  052%=      5-min Rain = 0
KWA1 211519Z 17009KT 30/19 A2999 RMK A01 T02960187  RH  052%=      5-min Rain = 0
KWA1 211520Z 17009KT 30/19 A2999 RMK A01 T02960187  RH  052%=      5-min Rain = 0
KWA1 211521Z 17009KT 30/19 A2999 RMK A01 T02970188  RH  052%=      5-min Rain = 0
KWA1 211522Z 17010KT 30/19 A2999 RMK A01 T02980190  RH  052%=      5-min Rain = 0
KWA1 211523Z 18009KT 30/19 A2999 RMK A01 T02990186  RH  051%=      5-min Rain = 0
KWA1 211524Z 18009KT 30/19 A2999 RMK A01 T02980188  RH  052%=      5-min Rain = 0
KWA1 211525Z 17011KT 30/19 A2999 RMK A01 T02980189  RH  052%=      5-min Rain = 0
KWA1 211526Z 17009KT 30/19 A2999 RMK A01 T02990191  RH  052%=      5-min Rain = 0
KWA1 211527Z 19011KT 30/19 A2999 RMK A01 T03020191  RH  051%=      5-min Rain = 0
KWA1 211528Z 18010KT 30/19 A2999 RMK A01 T03020188  RH  050%=      5-min Rain = 0
KWA1 211529Z 18010KT 30/19 A2999 RMK A01 T03020189  RH  051%=      5-min Rain = 0
KWA1 211530Z 16010KT 30/19 A2999 RMK A01 T03020190  RH  051%=      5-min Rain = 0
KWA1 211531Z 16009KT 30/19 A2999 RMK A01 T03040190  RH  050%=      5-min Rain = 0
KWA1 211532Z 17008KT 30/19 A2999 RMK A01 T03030189  RH  051%=      5-min Rain = 0
KWA1 211533Z 17009KT 30/19 A2999 RMK A01 T03020188  RH  051%=      5-min Rain = 0
KWA1 211534Z 16008KT 30/19 A2999 RMK A01 T03010190  RH  051%=      5-min Rain = 0
KWA1 211535Z 17010KT 30/19 A2999 RMK A01 T03030190  RH  051%=      5-min Rain = 0
KWA1 211536Z 17010KT 30/19 A2999 RMK A01 T03040189  RH  050%=      5-min Rain = 0
KWA1 211537Z 17012KT 30/19 A2999 RMK A01 T03040187  RH  050%=      5-min Rain = 0
KWA1 211538Z 18012KT 30/19 A2999 RMK A01 T03040188  RH  050%=      5-min Rain = 0
KWA1 211539Z 17011KT 31/19 A2999 RMK A01 T03060186  RH  049%=      5-min Rain = 0
KWA1 211540Z 18010KT 31/18 A2999 RMK A01 T03060184  RH  048%=      5-min Rain = 0
KWA1 211541Z 18010KT 31/18 A2999 RMK A01 T03060183  RH  048%=      5-min Rain = 0
KWA1 211542Z 20010KT 31/19 A2999 RMK A01 T03070185  RH  048%=      5-min Rain = 0
KWA1 211543Z 20012KT 31/19 A2999 RMK A01 T03060186  RH  049%=      5-min Rain = 0
KWA1 211544Z 19012KT 31/19 A2999 RMK A01 T03060186  RH  049%=      5-min Rain = 0
KWA1 211545Z 17009KT 31/19 A2999 RMK A01 T03080188  RH  049%=      5-min Rain = 0
KWA1 211546Z 17010KT 31/19 A2999 RMK A01 T03090187  RH  048%=      5-min Rain = 0
KWA1 211547Z 17013KT 31/19 A2999 RMK A01 T03090185  RH  047%=      5-min Rain = 0
KWA1 211548Z 17012KT 31/18 A2999 RMK A01 T03080184  RH  048%=      5-min Rain = 0
KWA1 211549Z 17013KT 31/18 A2999 RMK A01 T03090181  RH  046%=      5-min Rain = 0
KWA1 211550Z 17013KT 31/18 A2999 RMK A01 T03100182  RH  046%=      5-min Rain = 0
KWA1 211551Z 18012KT 31/18 A2999 RMK A01 T03110181  RH  046%=      5-min Rain = 0
KWA1 211552Z 19010KT 31/18 A2999 RMK A01 T03090182  RH  047%=      5-min Rain = 0
KWA1 211553Z 19014KT 31/18 A2999 RMK A01 T03090179  RH  046%=      5-min Rain = 0
KWA1 211554Z 18013KT 31/18 A2999 RMK A01 T03100178  RH  045%=      5-min Rain = 0
KWA1 211555Z 18010KT 31/18 A2999 RMK A01 T03120179  RH  045%=      5-min Rain = 0
KWA1 211556Z 19012KT 31/18 A2999 RMK A01 T03110178  RH  045%=      5-min Rain = 0
KWA1 211557Z 19011KT 31/18 A2999 RMK A01 T03100180  RH  046%=      5-min Rain = 0
KWA1 211558Z 19012KT 31/18 A2999 RMK A01 T03090180  RH  046%=      5-min Rain = 0
KWA1 211559Z 19012KT 31/18 A2999 RMK A01 T03100179  RH  046%=      5-min Rain = 0
KWA1 211600Z 16012KT 31/19 A2999 RMK A01 T03130185  RH  047%=      5-min Rain = 0
KWA1 211601Z 15010KT 31/18 A2999 RMK A01 T03140184  RH  046%=      5-min Rain = 0
KWA1 211602Z 19008KT 31/19 A2999 RMK A01 T03130185  RH  047%=      5-min Rain = 0
KWA1 211603Z 18010KT 31/19 A2999 RMK A01 T03120185  RH  047%=      5-min Rain = 0
KWA1 211604Z 16010KT 31/19 A2999 RMK A01 T03140187  RH  047%=      5-min Rain = 0
KWA1 211605Z 16012KT 32/18 A2999 RMK A01 T03160183  RH  045%=      5-min Rain = 0
KWA1 211606Z 17011KT 32/18 A2999 RMK A01 T03170183  RH  045%=      5-min Rain = 0
KWA1 211607Z 17013KT 32/18 A2999 RMK A01 T03190177  RH  043%=      5-min Rain = 0
KWA1 211608Z 18013KT 32/18 A2999 RMK A01 T03190179  RH  043%=      5-min Rain = 0
KWA1 211609Z 17011KT 32/18 A2999 RMK A01 T03190179  RH  043%=      5-min Rain = 0
KWA1 211610Z 17011KT 32/18 A2999 RMK A01 T03200181  RH  044%=      5-min Rain = 0
KWA1 211611Z 19010KT 32/18 A2999 RMK A01 T03200179  RH  043%=      5-min Rain = 0
KWA1 211612Z 19009KT 32/18 A2999 RMK A01 T03190176  RH  042%=      5-min Rain = 0
KWA1 211613Z 19011KT 32/18 A2999 RMK A01 T03170177  RH  043%=      5-min Rain = 0
KWA1 211614Z 19013KT 32/18 A2999 RMK A01 T03160176  RH  043%=      5-min Rain = 0
KWA1 211615Z 20012KT 32/17 A2999 RMK A01 T03170174  RH  043%=      5-min Rain = 0
KWA1 211616Z 19010KT 32/18 A2999 RMK A01 T03170178  RH  044%=      5-min Rain = 0
KWA1 211617Z 19011KT 32/18 A2999 RMK A01 T03180177  RH  043%=      5-min Rain = 0
KWA1 211618Z 19009KT 32/18 A2999 RMK A01 T03190180  RH  044%=      5-min Rain = 0
KWA1 211619Z 20011KT 32/18 A2999 RMK A01 T03200177  RH  042%=      5-min Rain = 0
KWA1 211620Z 20008KT 32/18 A2999 RMK A01 T03200176  RH  042%=      5-min Rain = 0
KWA1 211621Z 18010KT 32/18 A2999 RMK A01 T03190178  RH  043%=      5-min Rain = 0
KWA1 211622Z 17011KT 32/18 A2999 RMK A01 T03200182  RH  044%=      5-min Rain = 0
KWA1 211623Z 17009KT 32/18 A2999 RMK A01 T03220184  RH  044%=      5-min Rain = 0
KWA1 211624Z 19009KT 33/19 A30 RMK A01 T03250186  RH  044%=      5-min Rain = 0
KWA1 211625Z 17009KT 32/18 A2999 RMK A01 T03240181  RH  043%=      5-min Rain = 0
KWA1 211626Z 16007KT 32/18 A2999 RMK A01 T03220182  RH  043%=      5-min Rain = 0
KWA1 211627Z 16010KT 32/18 A2999 RMK A01 T03240182  RH  043%=      5-min Rain = 0
KWA1 211628Z 17012KT 33/18 A2999 RMK A01 T03250181  RH  042%=      5-min Rain = 0
KWA1 211629Z 17012KT 33/18 A2999 RMK A01 T03260176  RH  041%=      5-min Rain = 0
KWA1 211630Z 19012KT 32/18 A30 RMK A01 T03240175  RH  041%=      5-min Rain = 0
KWA1 211631Z 17010KT 32/18 A30 RMK A01 T03230180  RH  042%=      5-min Rain = 0
KWA1 211632Z 18012KT 33/18 A30 RMK A01 T03260175  RH  041%=      5-min Rain = 0
KWA1 211633Z 18010KT 33/18 A30 RMK A01 T03250175  RH  041%=      5-min Rain = 0
KWA1 211634Z 17010KT 32/18 A30 RMK A01 T03240175  RH  041%=      5-min Rain = 0
KWA1 211635Z 17012KT 32/18 A30 RMK A01 T03230180  RH  043%=      5-min Rain = 0
KWA1 211636Z 18009KT 32/18 A30 RMK A01 T03230181  RH  043%=      5-min Rain = 0
KWA1 211637Z 17012KT 33/18 A30 RMK A01 T03260182  RH  043%=      5-min Rain = 0
KWA1 211638Z 15011KT 33/18 A30 RMK A01 T03260181  RH  042%=      5-min Rain = 0
KWA1 211639Z 15012KT 33/18 A30 RMK A01 T03250181  RH  042%=      5-min Rain = 0
KWA1 211640Z 15012KT 33/18 A30 RMK A01 T03250177  RH  041%=      5-min Rain = 0
KWA1 211641Z 15012KT 33/18 A30 RMK A01 T03250177  RH  041%=      5-min Rain = 0
KWA1 211642Z 17009KT 32/18 A30 RMK A01 T03230179  RH  042%=      5-min Rain = 0
KWA1 211643Z 20007KT 33/18 A30 RMK A01 T03250179  RH  042%=      5-min Rain = 0
KWA1 211644Z 18004KT 32/18 A30 RMK A01 T03230180  RH  043%=      5-min Rain = 0
KWA1 211645Z 17009KT 32/18 A30 RMK A01 T03220182  RH  043%=      5-min Rain = 0
KWA1 211646Z 17007KT 32/18 A30 RMK A01 T03230179  RH  042%=      5-min Rain = 0
KWA1 211647Z 18005KT 32/18 A30 RMK A01 T03230180  RH  043%=      5-min Rain = 0
KWA1 211648Z 16005KT 32/19 A30 RMK A01 T03240185  RH  044%=      5-min Rain = 0
KWA1 211649Z 16008KT 33/18 A30 RMK A01 T03270183  RH  042%=      5-min Rain = 0
KWA1 211650Z 15010KT 33/18 A30 RMK A01 T03290180  RH  041%=      5-min Rain = 0
KWA1 211651Z 17012KT 33/18 A30 RMK A01 T03290177  RH  040%=      5-min Rain = 0
KWA1 211652Z 18010KT 33/17 A30 RMK A01 T03260173  RH  040%=      5-min Rain = 0
KWA1 211653Z 17007KT 33/18 A30 RMK A01 T03260181  RH  042%=      5-min Rain = 0
KWA1 211654Z 17009KT 33/18 A30 RMK A01 T03290180  RH  041%=      5-min Rain = 0
KWA1 211655Z 18006KT 33/17 A30 RMK A01 T03290172  RH  039%=      5-min Rain = 0
KWA1 211656Z 17007KT 33/17 A30 RMK A01 T03260174  RH  040%=      5-min Rain = 0
KWA1 211657Z 16009KT 33/18 A30 RMK A01 T03260181  RH  042%=      5-min Rain = 0
KWA1 211658Z 14012KT 33/18 A2999 RMK A01 T03280182  RH  042%=      5-min Rain = 0
KWA1 211659Z 15012KT 33/18 A30 RMK A01 T03290184  RH  042%=      5-min Rain = 0
KWA1 211700Z 16010KT 33/18 A30 RMK A01 T03310182  RH  041%=      5-min Rain = 0
KWA1 211701Z 16010KT 33/18 A30 RMK A01 T03270179  RH  041%=      5-min Rain = 0
KWA1 211702Z 16007KT 33/18 A30 RMK A01 T03260180  RH  042%=      5-min Rain = 0
KWA1 211703Z 17006KT 33/18 A30 RMK A01 T03260180  RH  042%=      5-min Rain = 0
KWA1 211704Z 17008KT 33/18 A30 RMK A01 T03270180  RH  042%=      5-min Rain = 0
KWA1 211705Z 17008KT 33/18 A30 RMK A01 T03280177  RH  041%=      5-min Rain = 0
KWA1 211706Z 17006KT 33/18 A30 RMK A01 T03260177  RH  041%=      5-min Rain = 0
KWA1 211707Z 16006KT 33/18 A30 RMK A01 T03260180  RH  042%=      5-min Rain = 0
KWA1 211708Z 16010KT 33/18 A30 RMK A01 T03280175  RH  040%=      5-min Rain = 0
KWA1 211709Z 17009KT 33/18 A30 RMK A01 T03300176  RH  040%=      5-min Rain = 0
KWA1 211710Z 17008KT 33/17 A30 RMK A01 T03330169  RH  038%=      5-min Rain = 0
KWA1 211711Z 18008KT 33/17 A30 RMK A01 T03320171  RH  038%=      5-min Rain = 0
KWA1 211712Z 18008KT 33/17 A30 RMK A01 T03300169  RH  038%=      5-min Rain = 0
KWA1 211713Z 18007KT 33/17 A30 RMK A01 T03300169  RH  038%=      5-min Rain = 0
KWA1 211714Z 17008KT 33/17 A30 RMK A01 T03300172  RH  039%=      5-min Rain = 0
KWA1 211715Z 16007KT 33/17 A30 RMK A01 T03290172  RH  039%=      5-min Rain = 0
KWA1 211716Z 16006KT 33/18 A30 RMK A01 T03300175  RH  040%=      5-min Rain = 0
KWA1 211717Z 17005KT 33/17 A30 RMK A01 T03300173  RH  039%=      5-min Rain = 0
KWA1 211718Z 19005KT 33/17 A30 RMK A01 T03300171  RH  039%=      5-min Rain = 0
KWA1 211719Z 15004KT 33/17 A30 RMK A01 T03290173  RH  039%=      5-min Rain = 0
KWA1 211720Z 15006KT 33/17 A30 RMK A01 T03300174  RH  039%=      5-min Rain = 0
KWA1 211721Z 16008KT 33/18 A30 RMK A01 T03320175  RH  039%=      5-min Rain = 0
KWA1 211722Z 16009KT 33/17 A30 RMK A01 T03340173  RH  038%=      5-min Rain = 0
KWA1 211723Z 18008KT 33/17 A30 RMK A01 T03340174  RH  038%=      5-min Rain = 0
KWA1 211724Z 18007KT 33/17 A30 RMK A01 T03330169  RH  038%=      5-min Rain = 0
KWA1 211725Z 19006KT 33/17 A30 RMK A01 T03310168  RH  038%=      5-min Rain = 0
KWA1 211726Z 16005KT 33/17 A30 RMK A01 T03310169  RH  038%=      5-min Rain = 0
KWA1 211727Z 15007KT 33/17 A30 RMK A01 T03320174  RH  039%=      5-min Rain = 0
KWA1 211728Z 16008KT 34/17 A30 RMK A01 T03350172  RH  038%=      5-min Rain = 0
KWA1 211729Z 16008KT 34/17 A30 RMK A01 T03360168  RH  037%=      5-min Rain = 0
KWA1 211730Z 16007KT 34/17 A30 RMK A01 T03360171  RH  037%=      5-min Rain = 0
KWA1 211731Z 16006KT 34/17 A30 RMK A01 T03360166  RH  036%=      5-min Rain = 0
KWA1 211732Z 15007KT 34/17 A30 RMK A01 T03370172  RH  037%=      5-min Rain = 0
KWA1 211733Z 15007G12KT 34/17 A30 RMK A01 T03390173  RH  037%=      5-min Rain = 0
KWA1 211734Z 15006KT 34/17 A2999 RMK A01 T03420166  RH  035%=      5-min Rain = 0
KWA1 211735Z 17010KT 34/17 A2999 RMK A01 T03400165  RH  035%=      5-min Rain = 0
KWA1 211736Z 18009KT 34/17 A2999 RMK A01 T03380165  RH  035%=      5-min Rain = 0
KWA1 211737Z 16009KT 34/16 A2999 RMK A01 T03380160  RH  035%=      5-min Rain = 0
KWA1 211738Z 17010KT 34/16 A2999 RMK A01 T03380162  RH  035%=      5-min Rain = 0
KWA1 211739Z 18011KT 34/16 A2999 RMK A01 T03390163  RH  035%=      5-min Rain = 0
KWA1 211740Z 15010KT 34/17 A2999 RMK A01 T03410166  RH  035%=      5-min Rain = 0
KWA1 211741Z 14007KT 34/17 A2999 RMK A01 T03400165  RH  035%=      5-min Rain = 0
KWA1 211742Z 15006KT 34/17 A2999 RMK A01 T03390169  RH  036%=      5-min Rain = 0
KWA1 211743Z 19007KT 34/17 A2999 RMK A01 T03400168  RH  036%=      5-min Rain = 0
KWA1 211744Z 17007KT 34/17 A2999 RMK A01 T03400169  RH  036%=      5-min Rain = 0
KWA1 211745Z 16007KT 34/17 A2999 RMK A01 T03400168  RH  036%=      5-min Rain = 0
KWA1 211746Z 14009KT 34/17 A2999 RMK A01 T03400170  RH  036%=      5-min Rain = 0
KWA1 211747Z 14008KT 34/16 A2999 RMK A01 T03410163  RH  035%=      5-min Rain = 0
KWA1 211748Z 16005KT 34/17 A2999 RMK A01 T03400169  RH  036%=      5-min Rain = 0
KWA1 211749Z 14006KT 34/17 A2999 RMK A01 T03420166  RH  035%=      5-min Rain = 0
KWA1 211750Z 16006KT 34/16 A2999 RMK A01 T03410159  RH  034%=      5-min Rain = 0
KWA1 211751Z 16012KT 34/16 A2999 RMK A01 T03420160  RH  034%=      5-min Rain = 0
KWA1 211752Z 17009KT 34/16 A2999 RMK A01 T03440157  RH  033%=      5-min Rain = 0
KWA1 211753Z 18009KT 34/16 A2999 RMK A01 T03430161  RH  034%=      5-min Rain = 0
KWA1 211754Z 14010KT 35/16 A2999 RMK A01 T03450161  RH  033%=      5-min Rain = 0
KWA1 211755Z 14008KT 34/16 A2999 RMK A01 T03430155  RH  033%=      5-min Rain = 0
KWA1 211756Z 13003KT 34/16 A2999 RMK A01 T03410157  RH  033%=      5-min Rain = 0
KWA1 211757Z 16004KT 34/16 A2999 RMK A01 T03420159  RH  034%=      5-min Rain = 0
KWA1 211758Z 12004KT 34/16 A2999 RMK A01 T03420160  RH  034%=      5-min Rain = 0
KWA1 211759Z 12004KT 34/17 A2999 RMK A01 T03420167  RH  035%=      5-min Rain = 0
KWA1 211800Z 12004KT 34/16 A2999 RMK A01 T03430164  RH  034%=      5-min Rain = 0
KWA1 211801Z 14006KT 34/17 A2998 RMK A01 T03430166  RH  035%=      5-min Rain = 0
KWA1 211802Z 14007KT 35/17 A2998 RMK A01 T03460167  RH  035%=      5-min Rain = 0
KWA1 211803Z 16011G16KT 35/16 A2998 RMK A01 T03460162  RH  033%=      5-min Rain = 0
KWA1 211804Z 17010KT 35/16 A2998 RMK A01 T03460163  RH  034%=      5-min Rain = 0
KWA1 211805Z 17010KT 35/16 A2999 RMK A01 T03480163  RH  033%=      5-min Rain = 0
KWA1 211806Z 17010KT 35/16 A2999 RMK A01 T03490161  RH  033%=      5-min Rain = 0
KWA1 211807Z 16010KT 35/16 A2999 RMK A01 T03480157  RH  032%=      5-min Rain = 0
KWA1 211808Z 17009KT 35/16 A2999 RMK A01 T03460156  RH  032%=      5-min Rain = 0
KWA1 211809Z 17007KT 35/15 A2999 RMK A01 T03460154  RH  032%=      5-min Rain = 0
KWA1 211810Z 14007G12KT 35/16 A2999 RMK A01 T03450160  RH  033%=      5-min Rain = 0
KWA1 211811Z 17008KT 35/16 A2998 RMK A01 T03460155  RH  032%=      5-min Rain = 0
KWA1 211812Z 13005KT 34/15 A2998 RMK A01 T03420152  RH  032%=      5-min Rain = 0
KWA1 211813Z 12008KT 34/15 A2998 RMK A01 T03440151  RH  032%=      5-min Rain = 0
KWA1 211814Z 12012KT 35/16 A2998 RMK A01 T03460161  RH  033%=      5-min Rain = 0
KWA1 211815Z 12009KT 35/16 A2998 RMK A01 T03470163  RH  034%=      5-min Rain = 0
KWA1 211816Z 12010KT 35/16 A2998 RMK A01 T03480162  RH  033%=      5-min Rain = 0
KWA1 211817Z 14011G16KT 35/16 A2998 RMK A01 T03480160  RH  033%=      5-min Rain = 0
KWA1 211818Z 15010KT 35/16 A2998 RMK A01 T03470160  RH  033%=      5-min Rain = 0
KWA1 211819Z 14009KT 35/16 A2998 RMK A01 T03470159  RH  033%=      5-min Rain = 0
KWA1 211820Z 11006KT 35/16 A2998 RMK A01 T03450155  RH  032%=      5-min Rain = 0
KWA1 211821Z 12005KT 35/16 A2998 RMK A01 T03450159  RH  033%=      5-min Rain = 0
KWA1 211822Z 14007KT 35/16 A2998 RMK A01 T03470158  RH  032%=      5-min Rain = 0
KWA1 211823Z 16007KT 35/16 A2998 RMK A01 T03470161  RH  033%=      5-min Rain = 0
KWA1 211824Z 15005KT 35/16 A2998 RMK A01 T03470159  RH  033%=      5-min Rain = 0
KWA1 211825Z 15010KT 35/16 A2998 RMK A01 T03460159  RH  033%=      5-min Rain = 0
KWA1 211826Z 15008KT 35/16 A2998 RMK A01 T03480158  RH  032%=      5-min Rain = 0
KWA1 211827Z 15009KT 35/15 A2997 RMK A01 T03480153  RH  031%=      5-min Rain = 0
KWA1 211828Z 15009KT 35/15 A2997 RMK A01 T03470152  RH  031%=      5-min Rain = 0
KWA1 211829Z 15009KT 35/15 A2997 RMK A01 T03470149  RH  031%=      5-min Rain = 0
KWA1 211830Z 16009KT 35/15 A2997 RMK A01 T03470150  RH  031%=      5-min Rain = 0
KWA1 211831Z 16007KT 35/15 A2997 RMK A01 T03480154  RH  032%=      5-min Rain = 0
KWA1 211832Z 19007KT 35/16 A2997 RMK A01 T03500161  RH  033%=      5-min Rain = 0
KWA1 211833Z 16011KT 35/16 A2997 RMK A01 T03530156  RH  031%=      5-min Rain = 0
KWA1 211834Z 16010KT 35/15 A2997 RMK A01 T03540154  RH  030%=      5-min Rain = 0
KWA1 211835Z 17008KT 35/15 A2997 RMK A01 T03520149  RH  030%=      5-min Rain = 0
KWA1 211836Z 18007KT 35/16 A2997 RMK A01 T03510155  RH  031%=      5-min Rain = 0
KWA1 211837Z 19007KT 35/15 A2997 RMK A01 T03510148  RH  030%=      5-min Rain = 0
KWA1 211838Z 19004KT 35/15 A2997 RMK A01 T03490146  RH  030%=      5-min Rain = 0
KWA1 211839Z 17007KT 35/16 A2997 RMK A01 T03490161  RH  033%=      5-min Rain = 0
KWA1 211840Z 18006KT 36/15 A2997 RMK A01 T03560149  RH  029%=      5-min Rain = 0
KWA1 211841Z 17007KT 35/16 A2997 RMK A01 T03540158  RH  031%=      5-min Rain = 0
KWA1 211842Z 17007KT 35/16 A2997 RMK A01 T03540157  RH  031%=      5-min Rain = 0
KWA1 211843Z 15011KT 35/16 A2997 RMK A01 T03510159  RH  032%=      5-min Rain = 0
KWA1 211844Z 15008KT 35/16 A2997 RMK A01 T03500157  RH  032%=      5-min Rain = 0
KWA1 211845Z 17011KT 35/16 A2997 RMK A01 T03500159  RH  032%=      5-min Rain = 0
KWA1 211846Z 16010KT 35/16 A2997 RMK A01 T03510155  RH  031%=      5-min Rain = 0
KWA1 211847Z 15010KT 35/15 A2997 RMK A01 T03520152  RH  030%=      5-min Rain = 0
KWA1 211848Z 15009KT 35/15 A2997 RMK A01 T03530151  RH  030%=      5-min Rain = 0
KWA1 211849Z 15006KT 35/15 A2997 RMK A01 T03520151  RH  030%=      5-min Rain = 0
KWA1 211850Z 13008KT 35/15 A2997 RMK A01 T03500150  RH  030%=      5-min Rain = 0
KWA1 211851Z 14003G8KT 35/15 A2997 RMK A01 T03480148  RH  030%=      5-min Rain = 0
KWA1 211852Z 17008KT 35/16 A2997 RMK A01 T03470155  RH  032%=      5-min Rain = 0
KWA1 211853Z 16009KT 35/16 A2997 RMK A01 T03530158  RH  031%=      5-min Rain = 0
KWA1 211854Z 16008KT 36/16 A2997 RMK A01 T03580163  RH  031%=      5-min Rain = 0
KWA1 211855Z 15008KT 36/16 A2997 RMK A01 T03590163  RH  031%=      5-min Rain = 0
KWA1 211856Z 16008KT 36/16 A2997 RMK A01 T03560159  RH  031%=      5-min Rain = 0
KWA1 211857Z 14007KT 35/16 A2997 RMK A01 T03540160  RH  032%=      5-min Rain = 0
KWA1 211858Z 13005KT 35/16 A2996 RMK A01 T03540157  RH  031%=      5-min Rain = 0
KWA1 211859Z 13006KT 35/15 A2996 RMK A01 T03540153  RH  030%=      5-min Rain = 0
KWA1 211900Z 15007KT 35/15 A2996 RMK A01 T03520154  RH  031%=      5-min Rain = 0
KWA1 211901Z 17008KT 35/17 A2996 RMK A01 T03530166  RH  033%=      5-min Rain = 0
KWA1 211902Z 19011KT 36/16 A2996 RMK A01 T03580164  RH  032%=      5-min Rain = 0
KWA1 211903Z 18009KT 36/16 A2996 RMK A01 T03600160  RH  031%=      5-min Rain = 0
KWA1 211904Z 15007KT 36/16 A2996 RMK A01 T03580161  RH  031%=      5-min Rain = 0
KWA1 211905Z 15006KT 36/16 A2996 RMK A01 T03560155  RH  030%=      5-min Rain = 0
KWA1 211906Z 18007KT 35/16 A2996 RMK A01 T03530158  RH  031%=      5-min Rain = 0
KWA1 211907Z 18012KT 35/16 A2996 RMK A01 T03530158  RH  031%=      5-min Rain = 0
KWA1 211908Z 18010KT 36/16 A2996 RMK A01 T03560158  RH  031%=      5-min Rain = 0
KWA1 211909Z 19011KT 36/16 A2996 RMK A01 T03570159  RH  031%=      5-min Rain = 0
KWA1 211910Z 20008KT 36/16 A2996 RMK A01 T03580159  RH  031%=      5-min Rain = 0
KWA1 211911Z 18007KT 36/16 A2996 RMK A01 T03580160  RH  031%=      5-min Rain = 0
KWA1 211912Z 21004KT 36/16 A2996 RMK A01 T03570156  RH  030%=      5-min Rain = 0
KWA1 211913Z 20007KT 36/16 A2996 RMK A01 T03550159  RH  031%=      5-min Rain = 0
KWA1 211914Z 20009KT 36/16 A2996 RMK A01 T03560159  RH  031%=      5-min Rain = 0
KWA1 211915Z 18011KT 36/16 A2996 RMK A01 T03590158  RH  030%=      5-min Rain = 0
KWA1 211916Z 19011KT 36/15 A2996 RMK A01 T03590153  RH  030%=      5-min Rain = 0
KWA1 211917Z 14011KT 36/16 A2996 RMK A01 T03590155  RH  030%=      5-min Rain = 0
KWA1 211918Z 13012KT 36/15 A2996 RMK A01 T03600145  RH  028%=      5-min Rain = 0
KWA1 211919Z 15009KT 36/15 A2996 RMK A01 T03610150  RH  028%=      5-min Rain = 0
KWA1 211920Z 13011KT 37/15 A2996 RMK A01 T03650152  RH  028%=      5-min Rain = 0
KWA1 211921Z 13013KT 36/15 A2996 RMK A01 T03640146  RH  027%=      5-min Rain = 0
KWA1 211922Z 13010KT 36/15 A2996 RMK A01 T03610145  RH  028%=      5-min Rain = 0
KWA1 211923Z 13007KT 36/15 A2996 RMK A01 T03620148  RH  028%=      5-min Rain = 0
KWA1 211924Z 11008KT 36/14 A2996 RMK A01 T03620144  RH  027%=      5-min Rain = 0
KWA1 211925Z 13009KT 36/15 A2996 RMK A01 T03640146  RH  027%=      5-min Rain = 0
KWA1 211926Z 13008KT 36/14 A2996 RMK A01 T03630142  RH  027%=      5-min Rain = 0
KWA1 211927Z 14007G13KT 36/15 A2996 RMK A01 T03600152  RH  029%=      5-min Rain = 0
KWA1 211928Z 13009KT 36/15 A2996 RMK A01 T03610145  RH  028%=      5-min Rain = 0
KWA1 211929Z 13005KT 36/14 A2996 RMK A01 T03610144  RH  027%=      5-min Rain = 0
KWA1 211930Z 15005KT 36/15 A2996 RMK A01 T03580149  RH  029%=      5-min Rain = 0
KWA1 211931Z 16003KT 36/16 A2996 RMK A01 T03600159  RH  030%=      5-min Rain = 0
KWA1 211932Z 09004KT 36/15 A2996 RMK A01 T03620149  RH  028%=      5-min Rain = 0
KWA1 211933Z 11007KT 36/15 A2996 RMK A01 T03620149  RH  028%=      5-min Rain = 0
KWA1 211934Z 14009KT 36/15 A2996 RMK A01 T03630152  RH  029%=      5-min Rain = 0
KWA1 211935Z 15010KT 37/15 A2996 RMK A01 T03650153  RH  028%=      5-min Rain = 0
KWA1 211936Z 15010KT 37/14 A2996 RMK A01 T03670144  RH  026%=      5-min Rain = 0
KWA1 211937Z 15010KT 37/14 A2996 RMK A01 T03650140  RH  026%=      5-min Rain = 0
KWA1 211938Z 13007KT 36/14 A2996 RMK A01 T03630142  RH  027%=      5-min Rain = 0
KWA1 211939Z 16008G14KT 36/15 A2995 RMK A01 T03640147  RH  028%=      5-min Rain = 0
KWA1 211940Z 15009KT 37/15 A2996 RMK A01 T03670148  RH  027%=      5-min Rain = 0
KWA1 211941Z 14008KT 37/14 A2996 RMK A01 T03680142  RH  026%=      5-min Rain = 0
KWA1 211942Z 16010KT 36/14 A2996 RMK A01 T03640139  RH  026%=      5-min Rain = 0
KWA1 211943Z 14008KT 36/13 A2996 RMK A01 T03640134  RH  025%=      5-min Rain = 0
KWA1 211944Z 12006KT 36/13 A2996 RMK A01 T03610129  RH  025%=      5-min Rain = 0
KWA1 211945Z 13004KT 36/14 A2996 RMK A01 T03590135  RH  026%=      5-min Rain = 0
KWA1 211946Z 19006KT 36/14 A2996 RMK A01 T03630141  RH  027%=      5-min Rain = 0
KWA1 211947Z 20006KT 37/14 A2995 RMK A01 T03650138  RH  026%=      5-min Rain = 0
KWA1 211948Z 19004KT 36/14 A2995 RMK A01 T03640137  RH  026%=      5-min Rain = 0
KWA1 211949Z 18004KT 36/14 A2995 RMK A01 T03640141  RH  026%=      5-min Rain = 0
KWA1 211950Z 16008KT 37/15 A2995 RMK A01 T03650146  RH  027%=      5-min Rain = 0
KWA1 211951Z 15006KT 36/15 A2995 RMK A01 T03630145  RH  027%=      5-min Rain = 0
KWA1 211952Z 17006KT 36/14 A2995 RMK A01 T03610140  RH  027%=      5-min Rain = 0
KWA1 211953Z 17006KT 36/15 A2995 RMK A01 T03590147  RH  028%=      5-min Rain = 0
KWA1 211954Z 15005KT 36/15 A2995 RMK A01 T03590147  RH  028%=      5-min Rain = 0
KWA1 211955Z 15005KT 36/15 A2995 RMK A01 T03600152  RH  029%=      5-min Rain = 0
KWA1 211956Z 13004KT 36/15 A2995 RMK A01 T03620152  RH  029%=      5-min Rain = 0
KWA1 211957Z 14009KT 36/15 A2995 RMK A01 T03630150  RH  028%=      5-min Rain = 0
KWA1 211958Z 14010KT 36/15 A2995 RMK A01 T03620149  RH  028%=      5-min Rain = 0
KWA1 211959Z 14010KT 36/15 A2995 RMK A01 T03610148  RH  028%=      5-min Rain = 0
KWA1 212000Z 14011KT 36/15 A2995 RMK A01 T03640151  RH  028%=      5-min Rain = 0
KWA1 212001Z 13007KT 37/15 A2995 RMK A01 T03650150  RH  028%=      5-min Rain = 0
KWA1 212002Z 12007KT 37/15 A2995 RMK A01 T03650146  RH  027%=      5-min Rain = 0
KWA1 212003Z 12005KT 36/15 A2995 RMK A01 T03640148  RH  028%=      5-min Rain = 0
KWA1 212004Z 16006G12KT 36/15 A2995 RMK A01 T03640147  RH  028%=      5-min Rain = 0
KWA1 212005Z 15013KT 37/15 A2995 RMK A01 T03650154  RH  029%=      5-min Rain = 0
KWA1 212006Z 16011KT 37/15 A2995 RMK A01 T03670152  RH  028%=      5-min Rain = 0
KWA1 212007Z 15009KT 37/15 A2995 RMK A01 T03680153  RH  028%=      5-min Rain = 0
KWA1 212008Z 14005KT 37/15 A2995 RMK A01 T03660146  RH  027%=      5-min Rain = 0
KWA1 212009Z 13005KT 36/15 A2995 RMK A01 T03620146  RH  028%=      5-min Rain = 0
KWA1 212010Z 13012KT 36/14 A2995 RMK A01 T03600143  RH  027%=      5-min Rain = 0
KWA1 212011Z 15010KT 36/14 A2995 RMK A01 T03620140  RH  027%=      5-min Rain = 0
KWA1 212012Z 14010KT 36/14 A2995 RMK A01 T03640139  RH  026%=      5-min Rain = 0
KWA1 212013Z 12010KT 37/13 A2995 RMK A01 T03660131  RH  025%=      5-min Rain = 0
KWA1 212014Z 13008KT 37/14 A2995 RMK A01 T03650136  RH  025%=      5-min Rain = 0
KWA1 212015Z 15007KT 37/15 A2995 RMK A01 T03660145  RH  027%=      5-min Rain = 0
KWA1 212016Z 16007KT 37/15 A2995 RMK A01 T03670152  RH  028%=      5-min Rain = 0
KWA1 212017Z 19005KT 37/15 A2994 RMK A01 T03680149  RH  027%=      5-min Rain = 0
KWA1 212018Z 18003KT 37/15 A2994 RMK A01 T03670145  RH  027%=      5-min Rain = 0
KWA1 212019Z 16002KT 36/14 A2994 RMK A01 T03640140  RH  026%=      5-min Rain = 0
KWA1 212020Z 16008KT 36/15 A2994 RMK A01 T03640153  RH  029%=      5-min Rain = 0
KWA1 212021Z 18009KT 37/15 A2994 RMK A01 T03670153  RH  028%=      5-min Rain = 0
KWA1 212022Z 16012KT 37/15 A2994 RMK A01 T03690152  RH  028%=      5-min Rain = 0
KWA1 212023Z 17009KT 37/15 A2994 RMK A01 T03670148  RH  027%=      5-min Rain = 0
KWA1 212024Z 18006KT 36/15 A2994 RMK A01 T03640149  RH  028%=      5-min Rain = 0
KWA1 212025Z 17007KT 36/15 A2994 RMK A01 T03640150  RH  028%=      5-min Rain = 0
KWA1 212026Z 14008KT 37/15 A2994 RMK A01 T03650153  RH  028%=      5-min Rain = 0
KWA1 212027Z 12013KT 37/15 A2994 RMK A01 T03690147  RH  027%=      5-min Rain = 0
KWA1 212028Z 13011KT 37/14 A2994 RMK A01 T03680144  RH  026%=      5-min Rain = 0
KWA1 212029Z 15010KT 37/15 A2994 RMK A01 T03660148  RH  027%=      5-min Rain = 0
KWA1 212030Z 15008KT 37/15 A2994 RMK A01 T03660149  RH  028%=      5-min Rain = 0
KWA1 212031Z 18008KT 37/15 A2994 RMK A01 T03670150  RH  028%=      5-min Rain = 0
KWA1 212032Z 18009KT 37/15 A2994 RMK A01 T03680148  RH  027%=      5-min Rain = 0
KWA1 212033Z 18008KT 37/16 A2994 RMK A01 T03700155  RH  028%=      5-min Rain = 0
KWA1 212034Z 17009KT 37/16 A2994 RMK A01 T03730159  RH  028%=      5-min Rain = 0
KWA1 212035Z 17007KT 37/16 A2994 RMK A01 T03730157  RH  028%=      5-min Rain = 0
KWA1 212036Z 16008KT 37/15 A2994 RMK A01 T03700154  RH  028%=      5-min Rain = 0
KWA1 212037Z 13008G14KT 37/15 A2994 RMK A01 T03660152  RH  028%=      5-min Rain = 0
KWA1 212038Z 12011KT 37/15 A2994 RMK A01 T03670147  RH  027%=      5-min Rain = 0
KWA1 212039Z 12010KT 37/14 A2994 RMK A01 T03690144  RH  026%=      5-min Rain = 0
KWA1 212040Z 12010KT 37/15 A2994 RMK A01 T03670145  RH  027%=      5-min Rain = 0
KWA1 212041Z 11011KT 37/14 A2994 RMK A01 T03700142  RH  026%=      5-min Rain = 0
KWA1 212042Z 10011KT 37/14 A2994 RMK A01 T03700144  RH  026%=      5-min Rain = 0
KWA1 212043Z 12014KT 37/14 A2994 RMK A01 T03720142  RH  026%=      5-min Rain = 0
KWA1 212044Z 12012KT 37/14 A2994 RMK A01 T03740136  RH  024%=      5-min Rain = 0
KWA1 212045Z 14012KT 37/14 A2994 RMK A01 T03730140  RH  025%=      5-min Rain = 0
KWA1 212046Z 14011G17KT 37/14 A2994 RMK A01 T03700143  RH  026%=      5-min Rain = 0
KWA1 212047Z 13012KT 37/14 A2994 RMK A01 T03710144  RH  026%=      5-min Rain = 0
KWA1 212048Z 11010KT 37/14 A2994 RMK A01 T03720143  RH  026%=      5-min Rain = 0
KWA1 212049Z 11010KT 37/15 A2994 RMK A01 T03730145  RH  026%=      5-min Rain = 0
KWA1 212050Z 12010KT 38/15 A2994 RMK A01 T03750148  RH  026%=      5-min Rain = 0
KWA1 212051Z 11010KT 38/15 A2994 RMK A01 T03760149  RH  026%=      5-min Rain = 0
KWA1 212052Z 12008KT 38/15 A2993 RMK A01 T03780149  RH  026%=      5-min Rain = 0
KWA1 212053Z 11010KT 38/15 A2993 RMK A01 T03770148  RH  026%=      5-min Rain = 0
KWA1 212054Z 11009KT 38/15 A2993 RMK A01 T03760147  RH  026%=      5-min Rain = 0
KWA1 212055Z 14009KT 37/15 A2993 RMK A01 T03730146  RH  026%=      5-min Rain = 0
KWA1 212056Z 16010KT 37/15 A2993 RMK A01 T03730153  RH  027%=      5-min Rain = 0
KWA1 212057Z 15010KT 38/15 A2993 RMK A01 T03760150  RH  026%=      5-min Rain = 0
KWA1 212058Z 14009KT 38/14 A2993 RMK A01 T03750143  RH  025%=      5-min Rain = 0
KWA1 212059Z 16009KT 37/15 A2993 RMK A01 T03730146  RH  026%=      5-min Rain = 0
KWA1 212100Z 16009KT 37/15 A2993 RMK A01 T03720146  RH  026%=      5-min Rain = 0
KWA1 212101Z 15005KT 37/15 A2993 RMK A01 T03710145  RH  026%=      5-min Rain = 0
KWA1 212102Z 13005KT 37/14 A2993 RMK A01 T03700142  RH  026%=      5-min Rain = 0
KWA1 212103Z 14010KT 37/14 A2993 RMK A01 T03690142  RH  026%=      5-min Rain = 0
KWA1 212104Z 14010KT 37/14 A2993 RMK A01 T03680138  RH  025%=      5-min Rain = 0
KWA1 212105Z 14010KT 37/14 A2993 RMK A01 T03680143  RH  026%=      5-min Rain = 0
KWA1 212106Z 15010KT 37/14 A2993 RMK A01 T03690143  RH  026%=      5-min Rain = 0
KWA1 212107Z 14009KT 37/14 A2993 RMK A01 T03700139  RH  025%=      5-min Rain = 0
KWA1 212108Z 14007KT 37/14 A2993 RMK A01 T03700139  RH  025%=      5-min Rain = 0
KWA1 212109Z 14005KT 37/14 A2993 RMK A01 T03690137  RH  025%=      5-min Rain = 0
KWA1 212110Z 17004KT 37/14 A2993 RMK A01 T03690136  RH  025%=      5-min Rain = 0
KWA1 212111Z 13005KT 37/14 A2993 RMK A01 T03680137  RH  025%=      5-min Rain = 0
KWA1 212112Z 15005KT 37/14 A2993 RMK A01 T03690138  RH  025%=      5-min Rain = 0
KWA1 212113Z 13007KT 37/14 A2993 RMK A01 T03680137  RH  025%=      5-min Rain = 0
KWA1 212114Z 12012G17KT 37/14 A2993 RMK A01 T03690138  RH  025%=      5-min Rain = 0
KWA1 212115Z 11010G15KT 37/14 A2993 RMK A01 T03720135  RH  024%=      5-min Rain = 0
KWA1 212116Z 10006KT 37/14 A2993 RMK A01 T03700136  RH  025%=      5-min Rain = 0
KWA1 212117Z 11008KT 37/14 A2993 RMK A01 T03690143  RH  026%=      5-min Rain = 0
KWA1 212118Z 13010KT 37/14 A2993 RMK A01 T03710141  RH  026%=      5-min Rain = 0
KWA1 212119Z 15010KT 37/13 A2993 RMK A01 T03720133  RH  024%=      5-min Rain = 0
KWA1 212120Z 15008KT 37/13 A2993 RMK A01 T03720134  RH  024%=      5-min Rain = 0
KWA1 212121Z 16009G14KT 37/14 A2993 RMK A01 T03730141  RH  025%=      5-min Rain = 0
KWA1 212122Z 15011KT 38/14 A2993 RMK A01 T03770142  RH  025%=      5-min Rain = 0
KWA1 212123Z 15011KT 38/14 A2993 RMK A01 T03770141  RH  025%=      5-min Rain = 0
KWA1 212124Z 16009KT 38/14 A2993 RMK A01 T03760139  RH  025%=      5-min Rain = 0
KWA1 212125Z 18008KT 38/14 A2993 RMK A01 T03750138  RH  024%=      5-min Rain = 0
KWA1 212126Z 19007KT 38/14 A2992 RMK A01 T03750136  RH  024%=      5-min Rain = 0
KWA1 212127Z 18006KT 38/14 A2992 RMK A01 T03750140  RH  025%=      5-min Rain = 0
KWA1 212128Z 17006KT 38/14 A2992 RMK A01 T03750140  RH  025%=      5-min Rain = 0
KWA1 212129Z 15006KT 37/14 A2992 RMK A01 T03730140  RH  025%=      5-min Rain = 0
KWA1 212130Z 15005KT 37/14 A2992 RMK A01 T03700137  RH  025%=      5-min Rain = 0
KWA1 212131Z 15008KT 37/14 A2992 RMK A01 T03690144  RH  026%=      5-min Rain = 0
KWA1 212132Z 12009KT 37/15 A2992 RMK A01 T03720145  RH  026%=      5-min Rain = 0
KWA1 212133Z 13009G15KT 38/15 A2992 RMK A01 T03760151  RH  026%=      5-min Rain = 0
KWA1 212134Z 14010G15KT 38/15 A2992 RMK A01 T03780146  RH  025%=      5-min Rain = 0
KWA1 212135Z 13010KT 38/15 A2992 RMK A01 T03770146  RH  025%=      5-min Rain = 0
KWA1 212136Z 14008KT 38/15 A2992 RMK A01 T03760145  RH  025%=      5-min Rain = 0
KWA1 212137Z 14008KT 37/14 A2992 RMK A01 T03740144  RH  026%=      5-min Rain = 0
KWA1 212138Z 15008KT 37/14 A2992 RMK A01 T03720141  RH  025%=      5-min Rain = 0
KWA1 212139Z 16009KT 37/14 A2992 RMK A01 T03720140  RH  025%=      5-min Rain = 0
KWA1 212140Z 15011KT 37/14 A2992 RMK A01 T03720140  RH  025%=      5-min Rain = 0
KWA1 212141Z 14011KT 37/14 A2992 RMK A01 T03710141  RH  025%=      5-min Rain = 0
KWA1 212142Z 15011KT 37/14 A2992 RMK A01 T03710143  RH  026%=      5-min Rain = 0
KWA1 212143Z 14011KT 37/14 A2992 RMK A01 T03710143  RH  026%=      5-min Rain = 0
KWA1 212144Z 13009KT 37/15 A2992 RMK A01 T03710148  RH  027%=      5-min Rain = 0
KWA1 212145Z 12008KT 37/14 A2992 RMK A01 T03730143  RH  025%=      5-min Rain = 0
KWA1 212146Z 11009KT 37/14 A2992 RMK A01 T03740144  RH  026%=      5-min Rain = 0
KWA1 212147Z 12007KT 37/14 A2992 RMK A01 T03740143  RH  025%=      5-min Rain = 0
KWA1 212148Z 10007KT 37/14 A2992 RMK A01 T03730143  RH  026%=      5-min Rain = 0
KWA1 212149Z 12008KT 37/14 A2992 RMK A01 T03730142  RH  025%=      5-min Rain = 0
KWA1 212150Z 13009KT 37/14 A2992 RMK A01 T03730143  RH  026%=      5-min Rain = 0
KWA1 212151Z 10011KT 37/15 A2992 RMK A01 T03740146  RH  026%=      5-min Rain = 0
KWA1 212152Z 11007KT 37/14 A2992 RMK A01 T03740140  RH  025%=      5-min Rain = 0
KWA1 212153Z 11005KT 37/14 A2992 RMK A01 T03720139  RH  025%=      5-min Rain = 0
KWA1 212154Z 11007G13KT 37/14 A2992 RMK A01 T03700141  RH  025%=      5-min Rain = 0
KWA1 212155Z 12009KT 37/14 A2992 RMK A01 T03710141  RH  025%=      5-min Rain = 0
KWA1 212156Z 11008KT 37/15 A2991 RMK A01 T03720146  RH  026%=      5-min Rain = 0
KWA1 212157Z 10010KT 37/15 A2992 RMK A01 T03740148  RH  026%=      5-min Rain = 0
KWA1 212158Z 11009KT 38/15 A2992 RMK A01 T03770148  RH  026%=      5-min Rain = 0
KWA1 212159Z 14010KT 38/15 A2992 RMK A01 T03760148  RH  026%=      5-min Rain = 0
KWA1 212200Z 17009KT 37/14 A2991 RMK A01 T03730137  RH  024%=      5-min Rain = 0
KWA1 212201Z 15012KT 37/14 A2991 RMK A01 T03720135  RH  024%=      5-min Rain = 0
KWA1 212202Z 15011G16KT 37/13 A2991 RMK A01 T03730130  RH  023%=      5-min Rain = 0
KWA1 212203Z 16013KT 37/13 A2991 RMK A01 T03740129  RH  023%=      5-min Rain = 0
KWA1 212204Z 15011KT 37/12 A2991 RMK A01 T03730121  RH  022%=      5-min Rain = 0
KWA1 212205Z 15008KT 37/12 A2991 RMK A01 T03700119  RH  022%=      5-min Rain = 0
KWA1 212206Z 15010KT 37/14 A2991 RMK A01 T03700135  RH  025%=      5-min Rain = 0
KWA1 212207Z 15008KT 37/14 A2991 RMK A01 T03700143  RH  026%=      5-min Rain = 0
KWA1 212208Z 15007KT 37/14 A2991 RMK A01 T03720144  RH  026%=      5-min Rain = 0
KWA1 212209Z 14007KT 37/14 A2991 RMK A01 T03730142  RH  025%=      5-min Rain = 0
KWA1 212210Z 15007KT 37/15 A2991 RMK A01 T03730146  RH  026%=      5-min Rain = 0
KWA1 212211Z 17009KT 37/15 A2991 RMK A01 T03740147  RH  026%=      5-min Rain = 0
KWA1 212212Z 16010KT 37/14 A2991 RMK A01 T03740143  RH  025%=      5-min Rain = 0
KWA1 212213Z 17009KT 37/14 A2991 RMK A01 T03740135  RH  024%=      5-min Rain = 0
KWA1 212214Z 17011KT 37/14 A2991 RMK A01 T03720138  RH  025%=      5-min Rain = 0
KWA1 212215Z 13010KT 37/14 A2991 RMK A01 T03730137  RH  025%=      5-min Rain = 0
KWA1 212216Z 16010KT 38/14 A2991 RMK A01 T03750139  RH  025%=      5-min Rain = 0
KWA1 212217Z 13011KT 38/14 A2991 RMK A01 T03760140  RH  025%=      5-min Rain = 0
KWA1 212218Z 14011KT 38/14 A2991 RMK A01 T03750138  RH  025%=      5-min Rain = 0
KWA1 212219Z 14010KT 37/14 A2991 RMK A01 T03720137  RH  025%=      5-min Rain = 0
KWA1 212220Z 13006KT 37/13 A2991 RMK A01 T03700132  RH  024%=      5-min Rain = 0
KWA1 212221Z 12008KT 37/13 A2991 RMK A01 T03690134  RH  025%=      5-min Rain = 0
KWA1 212222Z 14007KT 37/14 A2991 RMK A01 T03690135  RH  025%=      5-min Rain = 0
KWA1 212223Z 13012KT 37/14 A2991 RMK A01 T03690140  RH  026%=      5-min Rain = 0
KWA1 212224Z 10010KT 37/14 A2991 RMK A01 T03690141  RH  026%=      5-min Rain = 0
KWA1 212225Z 11006KT 37/14 A2991 RMK A01 T03680142  RH  026%=      5-min Rain = 0
KWA1 212226Z 10006KT 37/15 A2991 RMK A01 T03690146  RH  027%=      5-min Rain = 0
KWA1 212227Z 12007KT 37/15 A2991 RMK A01 T03690145  RH  026%=      5-min Rain = 0
KWA1 212228Z 12006KT 37/15 A2991 RMK A01 T03690147  RH  027%=      5-min Rain = 0
KWA1 212229Z 11007KT 37/15 A2991 RMK A01 T03670148  RH  027%=      5-min Rain = 0
KWA1 212230Z 15009KT 37/15 A2991 RMK A01 T03670146  RH  027%=      5-min Rain = 0
KWA1 212231Z 16009KT 37/14 A2991 RMK A01 T03680140  RH  026%=      5-min Rain = 0
KWA1 212232Z 17009KT 37/14 A2991 RMK A01 T03690136  RH  025%=      5-min Rain = 0
KWA1 212233Z 16007KT 37/14 A2991 RMK A01 T03700138  RH  025%=      5-min Rain = 0
KWA1 212234Z 17010KT 37/14 A2991 RMK A01 T03710139  RH  025%=      5-min Rain = 0
KWA1 212235Z 17010KT 37/14 A2991 RMK A01 T03710138  RH  025%=      5-min Rain = 0
KWA1 212236Z 17010KT 37/14 A2991 RMK A01 T03710140  RH  025%=      5-min Rain = 0
KWA1 212237Z 17010KT 37/14 A2991 RMK A01 T03710138  RH  025%=      5-min Rain = 0
KWA1 212238Z 18009KT 37/14 A299 RMK A01 T03720142  RH  025%=      5-min Rain = 0
KWA1 212239Z 19008KT 37/14 A299 RMK A01 T03720139  RH  025%=      5-min Rain = 0
KWA1 212240Z 19007KT 37/14 A299 RMK A01 T03700140  RH  025%=      5-min Rain = 0
KWA1 212241Z 18007KT 37/14 A299 RMK A01 T03700144  RH  026%=      5-min Rain = 0
KWA1 212242Z 16007KT 37/14 A2991 RMK A01 T03710143  RH  026%=      5-min Rain = 0
KWA1 212243Z 13011KT 37/14 A2991 RMK A01 T03720143  RH  026%=      5-min Rain = 0
KWA1 212244Z 12010KT 37/14 A2991 RMK A01 T03720140  RH  025%=      5-min Rain = 0
KWA1 212245Z 13007KT 37/14 A2991 RMK A01 T03720142  RH  025%=      5-min Rain = 0
KWA1 212246Z 15005KT 37/15 A2991 RMK A01 T03710146  RH  026%=      5-min Rain = 0
KWA1 212247Z 13007KT 37/15 A2991 RMK A01 T03700149  RH  027%=      5-min Rain = 0
KWA1 212248Z 14011KT 37/15 A2991 RMK A01 T03700151  RH  027%=      5-min Rain = 0
KWA1 212249Z 15009KT 37/16 A2991 RMK A01 T03700156  RH  028%=      5-min Rain = 0
KWA1 212250Z 15008KT 37/16 A299 RMK A01 T03710156  RH  028%=      5-min Rain = 0
KWA1 212251Z 12012G18KT 37/16 A299 RMK A01 T03710157  RH  028%=      5-min Rain = 0
KWA1 212252Z 12009KT 37/15 A299 RMK A01 T03710153  RH  027%=      5-min Rain = 0
KWA1 212253Z 11007KT 37/15 A299 RMK A01 T03720153  RH  027%=      5-min Rain = 0
KWA1 212254Z 10009KT 37/16 A299 RMK A01 T03720157  RH  028%=      5-min Rain = 0
KWA1 212255Z 10009KT 37/15 A299 RMK A01 T03730154  RH  027%=      5-min Rain = 0
KWA1 212256Z 11011KT 37/16 A299 RMK A01 T03730155  RH  027%=      5-min Rain = 0
KWA1 212257Z 11011KT 38/15 A299 RMK A01 T03750148  RH  026%=      5-min Rain = 0
KWA1 212258Z 12013KT 37/15 A299 RMK A01 T03720148  RH  026%=      5-min Rain = 0
KWA1 212259Z 12013KT 37/15 A299 RMK A01 T03710145  RH  026%=      5-min Rain = 0
KWA1 212300Z 13011KT 37/15 A299 RMK A01 T03700145  RH  026%=      5-min Rain = 0
KWA1 212301Z 12012KT 37/15 A299 RMK A01 T03700148  RH  027%=      5-min Rain = 0
KWA1 212302Z 11013KT 37/15 A299 RMK A01 T03710147  RH  027%=      5-min Rain = 0
KWA1 212303Z 11011KT 37/15 A299 RMK A01 T03710145  RH  026%=      5-min Rain = 0
KWA1 212304Z 12010KT 37/15 A299 RMK A01 T03710146  RH  026%=      5-min Rain = 0
KWA1 212305Z 12009KT 37/15 A299 RMK A01 T03700148  RH  027%=      5-min Rain = 0
KWA1 212306Z 12007KT 37/15 A299 RMK A01 T03700148  RH  027%=      5-min Rain = 0
KWA1 212307Z 11012KT 37/15 A299 RMK A01 T03700147  RH  027%=      5-min Rain = 0
KWA1 212308Z 13014KT 37/15 A299 RMK A01 T03720150  RH  027%=      5-min Rain = 0
KWA1 212309Z 13015KT 37/15 A299 RMK A01 T03730151  RH  027%=      5-min Rain = 0
KWA1 212310Z 13013KT 37/15 A299 RMK A01 T03700149  RH  027%=      5-min Rain = 0
KWA1 212311Z 13012KT 37/15 A299 RMK A01 T03700149  RH  027%=      5-min Rain = 0
KWA1 212312Z 12011KT 37/15 A299 RMK A01 T03690148  RH  027%=      5-min Rain = 0
KWA1 212313Z 14012KT 37/15 A299 RMK A01 T03680149  RH  027%=      5-min Rain = 0
KWA1 212314Z 15011KT 37/15 A299 RMK A01 T03690149  RH  027%=      5-min Rain = 0
KWA1 212315Z 14012KT 37/15 A299 RMK A01 T03690149  RH  027%=      5-min Rain = 0
KWA1 212316Z 13011KT 37/15 A299 RMK A01 T03680147  RH  027%=      5-min Rain = 0
KWA1 212317Z 13009KT 37/15 A299 RMK A01 T03680147  RH  027%=      5-min Rain = 0
KWA1 212318Z 14010KT 37/15 A299 RMK A01 T03680147  RH  027%=      5-min Rain = 0
KWA1 212319Z 14009KT 37/14 A299 RMK A01 T03670144  RH  027%=      5-min Rain = 0
KWA1 212320Z 13007KT 37/14 A299 RMK A01 T03650144  RH  027%=      5-min Rain = 0
KWA1 212321Z 12010KT 36/14 A299 RMK A01 T03640143  RH  027%=      5-min Rain = 0
KWA1 212322Z 12010KT 37/14 A299 RMK A01 T03660141  RH  026%=      5-min Rain = 0
KWA1 212323Z 13011KT 37/15 A299 RMK A01 T03690146  RH  027%=      5-min Rain = 0
KWA1 212324Z 14012KT 37/14 A299 RMK A01 T03690142  RH  026%=      5-min Rain = 0
KWA1 212325Z 12011KT 37/14 A299 RMK A01 T03670142  RH  026%=      5-min Rain = 0
KWA1 212326Z 13013KT 37/14 A299 RMK A01 T03660143  RH  026%=      5-min Rain = 0
KWA1 212327Z 13012G17KT 37/15 A299 RMK A01 T03670145  RH  027%=      5-min Rain = 0
KWA1 212328Z 14015KT 37/14 A299 RMK A01 T03660142  RH  026%=      5-min Rain = 0
KWA1 212329Z 14014KT 37/14 A299 RMK A01 T03650140  RH  026%=      5-min Rain = 0
KWA1 212330Z 13010KT 36/14 A299 RMK A01 T03640142  RH  027%=      5-min Rain = 0
KWA1 212331Z 13010KT 37/14 A299 RMK A01 T03650140  RH  026%=      5-min Rain = 0
KWA1 212332Z 13014KT 37/15 A299 RMK A01 T03650145  RH  027%=      5-min Rain = 0
KWA1 212333Z 12011KT 37/15 A299 RMK A01 T03660145  RH  027%=      5-min Rain = 0
KWA1 212334Z 12013KT 37/15 A299 RMK A01 T03670145  RH  027%=      5-min Rain = 0
KWA1 212335Z 12015KT 37/15 A299 RMK A01 T03680145  RH  027%=      5-min Rain = 0
KWA1 212336Z 12014KT 37/15 A299 RMK A01 T03670145  RH  027%=      5-min Rain = 0
KWA1 212337Z 12014KT 37/15 A299 RMK A01 T03660145  RH  027%=      5-min Rain = 0
KWA1 212338Z 13013KT 37/14 A299 RMK A01 T03650144  RH  027%=      5-min Rain = 0
KWA1 212339Z 13012KT 36/14 A299 RMK A01 T03640144  RH  027%=      5-min Rain = 0
KWA1 212340Z 12010KT 36/14 A299 RMK A01 T03640144  RH  027%=      5-min Rain = 0
KWA1 212341Z 12008KT 36/14 A299 RMK A01 T03640144  RH  027%=      5-min Rain = 0
KWA1 212342Z 10008KT 37/15 A299 RMK A01 T03650145  RH  027%=      5-min Rain = 0
KWA1 212343Z 11010KT 37/15 A299 RMK A01 T03660145  RH  027%=      5-min Rain = 0
KWA1 212344Z 12012KT 37/14 A299 RMK A01 T03660142  RH  026%=      5-min Rain = 0
KWA1 212345Z 13011KT 37/14 A299 RMK A01 T03660144  RH  027%=      5-min Rain = 0
KWA1 212346Z 13012KT 37/15 A299 RMK A01 T03660146  RH  027%=      5-min Rain = 0
KWA1 212347Z 12011KT 37/14 A299 RMK A01 T03650144  RH  027%=      5-min Rain = 0
KWA1 212348Z 14010KT 37/15 A299 RMK A01 T03650146  RH  027%=      5-min Rain = 0
KWA1 212349Z 13011KT 37/15 A299 RMK A01 T03650146  RH  027%=      5-min Rain = 0
KWA1 212350Z 14011KT 37/14 A299 RMK A01 T03650141  RH  026%=      5-min Rain = 0
KWA1 212351Z 13011KT 36/14 A299 RMK A01 T03640141  RH  026%=      5-min Rain = 0
KWA1 212352Z 13014KT 36/14 A299 RMK A01 T03640141  RH  026%=      5-min Rain = 0
KWA1 212353Z 13010KT 36/14 A299 RMK A01 T03640141  RH  026%=      5-min Rain = 0
KWA1 212354Z 13013KT 36/14 A299 RMK A01 T03640143  RH  027%=      5-min Rain = 0
KWA1 212355Z 14011KT 36/14 A299 RMK A01 T03640141  RH  027%=      5-min Rain = 0
KWA1 212356Z 13011KT 36/14 A299 RMK A01 T03630144  RH  027%=      5-min Rain = 0
KWA1 212357Z 14010KT 36/15 A299 RMK A01 T03630145  RH  027%=      5-min Rain = 0
KWA1 212358Z 13010KT 36/14 A299 RMK A01 T03630143  RH  027%=      5-min Rain = 0
KWA1 212359Z 12010KT 36/14 A299 RMK A01 T03630143  RH  027%=      5-min Rain = 0
KWA1 220000Z 14009KT 36/14 A299 RMK A01 T03640142  RH  027%=      5-min Rain = 0
KWA1 220001Z 13009KT 36/14 A299 RMK A01 T03640144  RH  027%=      5-min Rain = 0
KWA1 220002Z 12008KT 36/15 A299 RMK A01 T03630145  RH  027%=      5-min Rain = 0
KWA1 220003Z 13011KT 36/15 A299 RMK A01 T03640146  RH  027%=      5-min Rain = 0
KWA1 220004Z 14011KT 36/15 A299 RMK A01 T03640146  RH  027%=      5-min Rain = 0
KWA1 220005Z 13010KT 36/15 A299 RMK A01 T03630145  RH  027%=      5-min Rain = 0
KWA1 220006Z 13010KT 36/15 A299 RMK A01 T03640145  RH  027%=      5-min Rain = 0
KWA1 220007Z 14012KT 36/14 A299 RMK A01 T03630143  RH  027%=      5-min Rain = 0
KWA1 220008Z 13009KT 36/15 A299 RMK A01 T03630145  RH  027%=      5-min Rain = 0
KWA1 220009Z 14008KT 36/15 A299 RMK A01 T03620148  RH  028%=      5-min Rain = 0
KWA1 220010Z 14010KT 36/15 A299 RMK A01 T03630145  RH  027%=      5-min Rain = 0
KWA1 220011Z 13010KT 36/14 A299 RMK A01 T03620143  RH  027%=      5-min Rain = 0
KWA1 220012Z 13009KT 36/14 A299 RMK A01 T03620143  RH  027%=      5-min Rain = 0
KWA1 220013Z 13009KT 36/14 A299 RMK A01 T03620143  RH  027%=      5-min Rain = 0
KWA1 220014Z 13010KT 36/14 A299 RMK A01 T03620142  RH  027%=      5-min Rain = 0
KWA1 220015Z 13010KT 36/14 A299 RMK A01 T03610140  RH  027%=      5-min Rain = 0
KWA1 220016Z 12010KT 36/14 A299 RMK A01 T03610138  RH  026%=      5-min Rain = 0
KWA1 220017Z 14009KT 36/14 A299 RMK A01 T03600141  RH  027%=      5-min Rain = 0
KWA1 220018Z 13010KT 36/14 A299 RMK A01 T03600141  RH  027%=      5-min Rain = 0
KWA1 220019Z 14010KT 36/14 A299 RMK A01 T03600144  RH  028%=      5-min Rain = 0
KWA1 220020Z 14010KT 36/15 A299 RMK A01 T03600146  RH  028%=      5-min Rain = 0
KWA1 220021Z 13010KT 36/15 A299 RMK A01 T03590146  RH  028%=      5-min Rain = 0
KWA1 220022Z 14010KT 36/15 A299 RMK A01 T03580147  RH  028%=      5-min Rain = 0
KWA1 220023Z 14010KT 36/15 A299 RMK A01 T03580149  RH  029%=      5-min Rain = 0
KWA1 220024Z 14010KT 36/15 A299 RMK A01 T03580150  RH  029%=      5-min Rain = 0
KWA1 220025Z 14010KT 36/15 A299 RMK A01 T03580150  RH  029%=      5-min Rain = 0
KWA1 220026Z 14011KT 36/15 A299 RMK A01 T03570147  RH  029%=      5-min Rain = 0
KWA1 220027Z 14012KT 36/15 A299 RMK A01 T03570148  RH  029%=      5-min Rain = 0
KWA1 220028Z 14012KT 36/15 A299 RMK A01 T03570147  RH  029%=      5-min Rain = 0
KWA1 220029Z 15012KT 36/15 A299 RMK A01 T03570150  RH  029%=      5-min Rain = 0
KWA1 220030Z 15012KT 36/15 A299 RMK A01 T03560153  RH  030%=      5-min Rain = 0
KWA1 220031Z 14011KT 36/16 A299 RMK A01 T03560155  RH  030%=      5-min Rain = 0
KWA1 220032Z 14012KT 36/16 A299 RMK A01 T03550155  RH  030%=      5-min Rain = 0
KWA1 220033Z 14012KT 36/15 A299 RMK A01 T03550154  RH  030%=      5-min Rain = 0
KWA1 220034Z 13012KT 35/15 A2991 RMK A01 T03540154  RH  030%=      5-min Rain = 0
KWA1 220035Z 12011KT 35/15 A2991 RMK A01 T03540154  RH  030%=      5-min Rain = 0
KWA1 220036Z 12009KT 35/16 A2991 RMK A01 T03540155  RH  031%=      5-min Rain = 0
KWA1 220037Z 13011KT 35/15 A2991 RMK A01 T03540154  RH  030%=      5-min Rain = 0
KWA1 220038Z 12009KT 35/15 A2991 RMK A01 T03530152  RH  030%=      5-min Rain = 0
KWA1 220039Z 12011KT 35/15 A2991 RMK A01 T03540152  RH  030%=      5-min Rain = 0
KWA1 220040Z 12010KT 35/15 A2991 RMK A01 T03530150  RH  030%=      5-min Rain = 0
KWA1 220041Z 11010KT 35/15 A2991 RMK A01 T03530150  RH  030%=      5-min Rain = 0
KWA1 220042Z 12011KT 35/15 A2991 RMK A01 T03530150  RH  030%=      5-min Rain = 0
KWA1 220043Z 12012KT 35/15 A2991 RMK A01 T03530149  RH  030%=      5-min Rain = 0
KWA1 220044Z 12010KT 35/15 A2991 RMK A01 T03540150  RH  030%=      5-min Rain = 0
KWA1 220045Z 12011KT 35/15 A2991 RMK A01 T03530150  RH  030%=      5-min Rain = 0
KWA1 220046Z 12008KT 35/15 A2991 RMK A01 T03530151  RH  030%=      5-min Rain = 0
KWA1 220047Z 12011KT 35/15 A2991 RMK A01 T03520151  RH  030%=      5-min Rain = 0
KWA1 220048Z 12010KT 35/15 A2991 RMK A01 T03520150  RH  030%=      5-min Rain = 0
KWA1 220049Z 12010KT 35/15 A2991 RMK A01 T03520150  RH  030%=      5-min Rain = 0
KWA1 220050Z 12010KT 35/15 A2991 RMK A01 T03510150  RH  030%=      5-min Rain = 0
KWA1 220051Z 12011KT 35/15 A2991 RMK A01 T03510149  RH  030%=      5-min Rain = 0
KWA1 220052Z 13011KT 35/15 A2991 RMK A01 T03510149  RH  030%=      5-min Rain = 0
KWA1 220053Z 13009KT 35/15 A2991 RMK A01 T03500149  RH  030%=      5-min Rain = 0
KWA1 220054Z 12012KT 35/15 A2991 RMK A01 T03500148  RH  030%=      5-min Rain = 0
KWA1 220055Z 12011KT 35/15 A2991 RMK A01 T03500146  RH  030%=      5-min Rain = 0
KWA1 220056Z 12010KT 35/15 A2991 RMK A01 T03500147  RH  030%=      5-min Rain = 0
KWA1 220057Z 13010KT 35/15 A2991 RMK A01 T03490148  RH  030%=      5-min Rain = 0
KWA1 220058Z 12010KT 35/15 A2991 RMK A01 T03490147  RH  030%=      5-min Rain = 0
KWA1 220059Z 12009KT 35/15 A2991 RMK A01 T03490149  RH  030%=      5-min Rain = 0
KWA1 220100Z 12011KT 35/15 A2991 RMK A01 T03480147  RH  030%=      5-min Rain = 0
KWA1 220101Z 12009KT 35/15 A2991 RMK A01 T03480147  RH  030%=      5-min Rain = 0
KWA1 220102Z 12009KT 35/15 A2991 RMK A01 T03480148  RH  030%=      5-min Rain = 0
KWA1 220103Z 12010KT 35/15 A2991 RMK A01 T03470148  RH  030%=      5-min Rain = 0
KWA1 220104Z 12009KT 35/15 A2991 RMK A01 T03470148  RH  030%=      5-min Rain = 0
KWA1 220105Z 12010KT 35/15 A2991 RMK A01 T03470148  RH  030%=      5-min Rain = 0
KWA1 220106Z 12009KT 35/15 A2991 RMK A01 T03470148  RH  030%=      5-min Rain = 0
KWA1 220107Z 12009KT 35/15 A2991 RMK A01 T03460149  RH  031%=      5-min Rain = 0
KWA1 220108Z 12009KT 35/15 A2991 RMK A01 T03450149  RH  031%=      5-min Rain = 0
KWA1 220109Z 12009KT 35/15 A2991 RMK A01 T03450149  RH  031%=      5-min Rain = 0
KWA1 220110Z 12008KT 35/15 A2991 RMK A01 T03450149  RH  031%=      5-min Rain = 0
KWA1 220111Z 12009KT 34/15 A2991 RMK A01 T03440149  RH  031%=      5-min Rain = 0
KWA1 220112Z 12008KT 34/15 A2991 RMK A01 T03440150  RH  031%=      5-min Rain = 0
KWA1 220113Z 12009KT 34/15 A2991 RMK A01 T03430150  RH  031%=      5-min Rain = 0
KWA1 220114Z 12007KT 34/15 A2991 RMK A01 T03430150  RH  031%=      5-min Rain = 0
KWA1 220115Z 12007KT 34/15 A2992 RMK A01 T03420150  RH  032%=      5-min Rain = 0
KWA1 220116Z 12008KT 34/15 A2992 RMK A01 T03410150  RH  032%=      5-min Rain = 0
KWA1 220117Z 12008KT 34/15 A2992 RMK A01 T03410150  RH  032%=      5-min Rain = 0
KWA1 220118Z 12009KT 34/15 A2992 RMK A01 T03400150  RH  032%=      5-min Rain = 0
KWA1 220119Z 12009KT 34/15 A2992 RMK A01 T03400150  RH  032%=      5-min Rain = 0
KWA1 220120Z 12008KT 34/15 A2992 RMK A01 T03400150  RH  032%=      5-min Rain = 0
KWA1 220121Z 12009KT 34/15 A2992 RMK A01 T03390150  RH  032%=      5-min Rain = 0
KWA1 220122Z 13008KT 34/15 A2992 RMK A01 T03380150  RH  032%=      5-min Rain = 0
KWA1 220123Z 13009KT 34/15 A2992 RMK A01 T03380150  RH  032%=      5-min Rain = 0
KWA1 220124Z 13008KT 34/15 A2992 RMK A01 T03370151  RH  033%=      5-min Rain = 0
KWA1 220125Z 13008KT 34/15 A2992 RMK A01 T03370151  RH  033%=      5-min Rain = 0
KWA1 220126Z 13007KT 34/15 A2992 RMK A01 T03360151  RH  033%=      5-min Rain = 0
KWA1 220127Z 13007KT 34/15 A2992 RMK A01 T03350151  RH  033%=      5-min Rain = 0
KWA1 220128Z 13007KT 33/15 A2992 RMK A01 T03340151  RH  033%=      5-min Rain = 0
KWA1 220129Z 13007KT 33/15 A2992 RMK A01 T03330151  RH  033%=      5-min Rain = 0
KWA1 220130Z 13007KT 33/15 A2992 RMK A01 T03320151  RH  034%=      5-min Rain = 0
KWA1 220131Z 13007KT 33/15 A2992 RMK A01 T03320150  RH  034%=      5-min Rain = 0
KWA1 220132Z 13006KT 33/15 A2992 RMK A01 T03310150  RH  034%=      5-min Rain = 0
KWA1 220133Z 13006KT 33/15 A2992 RMK A01 T03300150  RH  034%=      5-min Rain = 0
KWA1 220134Z 12006KT 33/15 A2992 RMK A01 T03290150  RH  034%=      5-min Rain = 0
KWA1 220135Z 12006KT 33/15 A2992 RMK A01 T03290150  RH  034%=      5-min Rain = 0
KWA1 220136Z 12006KT 33/15 A2992 RMK A01 T03280150  RH  034%=      5-min Rain = 0
KWA1 220137Z 12006KT 33/15 A2992 RMK A01 T03270150  RH  034%=      5-min Rain = 0
KWA1 220138Z 12006KT 33/15 A2992 RMK A01 T03260150  RH  035%=      5-min Rain = 0
KWA1 220139Z 12006KT 33/15 A2992 RMK A01 T03250150  RH  035%=      5-min Rain = 0
KWA1 220140Z 12006KT 33/15 A2992 RMK A01 T03250150  RH  035%=      5-min Rain = 0
KWA1 220141Z 13007KT 32/15 A2992 RMK A01 T03240149  RH  035%=      5-min Rain = 0
KWA1 220142Z 12007KT 32/15 A2992 RMK A01 T03240149  RH  035%=      5-min Rain = 0
KWA1 220143Z 12007KT 32/15 A2992 RMK A01 T03240149  RH  035%=      5-min Rain = 0
KWA1 220144Z 12008KT 32/15 A2992 RMK A01 T03230149  RH  035%=      5-min Rain = 0
KWA1 220145Z 12008KT 32/15 A2992 RMK A01 T03230149  RH  035%=      5-min Rain = 0
KWA1 220146Z 12008KT 32/15 A2992 RMK A01 T03230150  RH  035%=      5-min Rain = 0
KWA1 220147Z 12007KT 32/15 A2992 RMK A01 T03230150  RH  035%=      5-min Rain = 0
KWA1 220148Z 12008KT 32/15 A2992 RMK A01 T03230150  RH  035%=      5-min Rain = 0
KWA1 220149Z 12008KT 32/15 A2992 RMK A01 T03230151  RH  035%=      5-min Rain = 0
KWA1 220150Z 12007KT 32/15 A2992 RMK A01 T03230151  RH  035%=      5-min Rain = 0
KWA1 220151Z 11007KT 32/15 A2992 RMK A01 T03220151  RH  036%=      5-min Rain = 0
KWA1 220152Z 11007KT 32/15 A2992 RMK A01 T03220152  RH  036%=      5-min Rain = 0
KWA1 220153Z 12007KT 32/15 A2992 RMK A01 T03220152  RH  036%=      5-min Rain = 0
KWA1 220154Z 11007KT 32/15 A2992 RMK A01 T03220152  RH  036%=      5-min Rain = 0
KWA1 220155Z 11007KT 32/15 A2992 RMK A01 T03220152  RH  036%=      5-min Rain = 0
KWA1 220156Z 11007KT 32/15 A2992 RMK A01 T03220153  RH  036%=      5-min Rain = 0
KWA1 220157Z 11006KT 32/15 A2992 RMK A01 T03230153  RH  036%=      5-min Rain = 0
KWA1 220158Z 11007KT 32/15 A2992 RMK A01 T03220152  RH  036%=      5-min Rain = 0
KWA1 220159Z 11007KT 32/15 A2992 RMK A01 T03210152  RH  036%=      5-min Rain = 0
KWA1 220200Z 11007KT 32/15 A2992 RMK A01 T03200152  RH  036%=      5-min Rain = 0
KWA1 220201Z 11007KT 32/15 A2992 RMK A01 T03190152  RH  036%=      5-min Rain = 0
KWA1 220202Z 11007KT 32/15 A2992 RMK A01 T03190152  RH  037%=      5-min Rain = 0
KWA1 220203Z 11008KT 32/15 A2992 RMK A01 T03190153  RH  037%=      5-min Rain = 0
KWA1 220204Z 12007KT 32/15 A2992 RMK A01 T03190153  RH  037%=      5-min Rain = 0
KWA1 220205Z 11008KT 32/15 A2993 RMK A01 T03190154  RH  037%=      5-min Rain = 0
KWA1 220206Z 11006KT 32/15 A2993 RMK A01 T03180154  RH  037%=      5-min Rain = 0
KWA1 220207Z 11007KT 32/16 A2993 RMK A01 T03170155  RH  038%=      5-min Rain = 0
KWA1 220208Z 11008KT 32/16 A2993 RMK A01 T03170156  RH  038%=      5-min Rain = 0
KWA1 220209Z 11006KT 32/16 A2993 RMK A01 T03170156  RH  038%=      5-min Rain = 0
KWA1 220210Z 11007KT 32/16 A2993 RMK A01 T03160156  RH  038%=      5-min Rain = 0
KWA1 220211Z 11007KT 32/16 A2993 RMK A01 T03160156  RH  038%=      5-min Rain = 0
KWA1 220212Z 11007KT 32/16 A2993 RMK A01 T03150156  RH  038%=      5-min Rain = 0
KWA1 220213Z 11006KT 32/16 A2993 RMK A01 T03150157  RH  039%=      5-min Rain = 0
KWA1 220214Z 11006KT 31/16 A2993 RMK A01 T03140156  RH  039%=      5-min Rain = 0
KWA1 220215Z 12007KT 31/16 A2993 RMK A01 T03130156  RH  039%=      5-min Rain = 0
KWA1 220216Z 11007KT 31/16 A2993 RMK A01 T03120157  RH  039%=      5-min Rain = 0
KWA1 220217Z 12007KT 31/16 A2993 RMK A01 T03120157  RH  039%=      5-min Rain = 0
KWA1 220218Z 12007KT 31/16 A2993 RMK A01 T03110157  RH  040%=      5-min Rain = 0
KWA1 220219Z 11007KT 31/16 A2993 RMK A01 T03100157  RH  040%=      5-min Rain = 0
KWA1 220220Z 12007KT 31/16 A2993 RMK A01 T03100158  RH  040%=      5-min Rain = 0
KWA1 220221Z 12008KT 31/16 A2993 RMK A01 T03100158  RH  040%=      5-min Rain = 0
KWA1 220222Z 12008KT 31/16 A2993 RMK A01 T03100158  RH  040%=      5-min Rain = 0
KWA1 220223Z 12008KT 31/16 A2993 RMK A01 T03100159  RH  040%=      5-min Rain = 0
KWA1 220224Z 12008KT 31/16 A2993 RMK A01 T03100159  RH  040%=      5-min Rain = 0
KWA1 220225Z 12009KT 31/16 A2994 RMK A01 T03100159  RH  040%=      5-min Rain = 0
KWA1 220226Z 12008KT 31/16 A2994 RMK A01 T03100160  RH  040%=      5-min Rain = 0
KWA1 220227Z 12008KT 31/16 A2994 RMK A01 T03100160  RH  041%=      5-min Rain = 0
KWA1 220228Z 12008KT 31/16 A2994 RMK A01 T03100161  RH  041%=      5-min Rain = 0
KWA1 220229Z 12008KT 31/16 A2994 RMK A01 T03090161  RH  041%=      5-min Rain = 0
KWA1 220230Z 12008KT 31/16 A2994 RMK A01 T03090161  RH  041%=      5-min Rain = 0
KWA1 220231Z 12008KT 31/16 A2994 RMK A01 T03090161  RH  041%=      5-min Rain = 0
KWA1 220232Z 12008KT 31/16 A2994 RMK A01 T03080161  RH  041%=      5-min Rain = 0
KWA1 220233Z 12008KT 31/16 A2994 RMK A01 T03080162  RH  041%=      5-min Rain = 0
KWA1 220234Z 12009KT 31/16 A2994 RMK A01 T03070162  RH  041%=      5-min Rain = 0
KWA1 220235Z 12008KT 31/16 A2994 RMK A01 T03070161  RH  041%=      5-min Rain = 0
KWA1 220236Z 12007KT 31/16 A2994 RMK A01 T03070162  RH  042%=      5-min Rain = 0
KWA1 220237Z 12007KT 31/16 A2994 RMK A01 T03070162  RH  042%=      5-min Rain = 0
KWA1 220238Z 12008KT 31/16 A2994 RMK A01 T03060162  RH  042%=      5-min Rain = 0
KWA1 220239Z 12008KT 31/16 A2994 RMK A01 T03060162  RH  042%=      5-min Rain = 0
KWA1 220240Z 12008KT 31/16 A2994 RMK A01 T03050162  RH  042%=      5-min Rain = 0
KWA1 220241Z 12008KT 30/16 A2994 RMK A01 T03040161  RH  042%=      5-min Rain = 0
KWA1 220242Z 12007KT 30/16 A2994 RMK A01 T03030162  RH  042%=      5-min Rain = 0
KWA1 220243Z 13007KT 30/16 A2994 RMK A01 T03030162  RH  043%=      5-min Rain = 0
KWA1 220244Z 13007KT 30/16 A2994 RMK A01 T03030162  RH  043%=      5-min Rain = 0
KWA1 220245Z 13008KT 30/16 A2994 RMK A01 T03020162  RH  043%=      5-min Rain = 0
KWA1 220246Z 13007KT 30/16 A2994 RMK A01 T03010162  RH  043%=      5-min Rain = 0
KWA1 220247Z 13007KT 30/16 A2994 RMK A01 T03010162  RH  043%=      5-min Rain = 0
KWA1 220248Z 13008KT 30/16 A2995 RMK A01 T03000162  RH  043%=      5-min Rain = 0
KWA1 220249Z 12007KT 30/16 A2995 RMK A01 T03000163  RH  044%=      5-min Rain = 0
KWA1 220250Z 13007KT 30/16 A2995 RMK A01 T03000163  RH  044%=      5-min Rain = 0
KWA1 220251Z 13007KT 30/16 A2995 RMK A01 T02990163  RH  044%=      5-min Rain = 0
KWA1 220252Z 13007KT 30/16 A2995 RMK A01 T02990163  RH  044%=      5-min Rain = 0
KWA1 220253Z 12007KT 30/16 A2995 RMK A01 T02980163  RH  044%=      5-min Rain = 0
KWA1 220254Z 12007KT 30/16 A2995 RMK A01 T02980163  RH  044%=      5-min Rain = 0
KWA1 220255Z 12007KT 30/16 A2995 RMK A01 T02980163  RH  044%=      5-min Rain = 0
KWA1 220256Z 13007KT 30/16 A2995 RMK A01 T02980164  RH  044%=      5-min Rain = 0
KWA1 220257Z 12006KT 30/16 A2995 RMK A01 T02970163  RH  044%=      5-min Rain = 0
KWA1 220258Z 13007KT 30/16 A2995 RMK A01 T02960163  RH  045%=      5-min Rain = 0
KWA1 220259Z 13007KT 30/16 A2995 RMK A01 T02960164  RH  045%=      5-min Rain = 0
KWA1 220300Z 13008KT 30/16 A2995 RMK A01 T02960164  RH  045%=      5-min Rain = 0
KWA1 220301Z 13007KT 30/16 A2995 RMK A01 T02960164  RH  045%=      5-min Rain = 0
KWA1 220302Z 13007KT 30/16 A2995 RMK A01 T02960164  RH  045%=      5-min Rain = 0
KWA1 220303Z 12007KT 30/16 A2995 RMK A01 T02960164  RH  045%=      5-min Rain = 0
KWA1 220304Z 13008KT 30/17 A2995 RMK A01 T02960165  RH  045%=      5-min Rain = 0
KWA1 220305Z 13007KT 30/17 A2995 RMK A01 T02960165  RH  045%=      5-min Rain = 0
KWA1 220306Z 13008KT 30/17 A2995 RMK A01 T02960166  RH  045%=      5-min Rain = 0
KWA1 220307Z 13008KT 30/17 A2995 RMK A01 T02960166  RH  046%=      5-min Rain = 0
KWA1 220308Z 13007KT 30/17 A2995 RMK A01 T02960166  RH  046%=      5-min Rain = 0
KWA1 220309Z 13008KT 30/17 A2995 RMK A01 T02950166  RH  046%=      5-min Rain = 0
KWA1 220310Z 13007KT 30/17 A2995 RMK A01 T02950166  RH  046%=      5-min Rain = 0
KWA1 220311Z 13008KT 30/17 A2995 RMK A01 T02950166  RH  046%=      5-min Rain = 0
KWA1 220312Z 13008KT 30/17 A2996 RMK A01 T02950167  RH  046%=      5-min Rain = 0
KWA1 220313Z 13008KT 30/17 A2996 RMK A01 T02950167  RH  046%=      5-min Rain = 0
KWA1 220314Z 13008KT 30/17 A2996 RMK A01 T02950167  RH  046%=      5-min Rain = 0
KWA1 220315Z 13007KT 30/17 A2996 RMK A01 T02950168  RH  046%=      5-min Rain = 0
KWA1 220316Z 13008KT 29/17 A2996 RMK A01 T02940168  RH  046%=      5-min Rain = 0
KWA1 220317Z 13008KT 29/17 A2996 RMK A01 T02940168  RH  047%=      5-min Rain = 0
KWA1 220318Z 13008KT 29/17 A2996 RMK A01 T02940169  RH  047%=      5-min Rain = 0
KWA1 220319Z 13008KT 30/17 A2996 RMK A01 T02950169  RH  047%=      5-min Rain = 0
KWA1 220320Z 13009KT 30/17 A2996 RMK A01 T02950169  RH  047%=      5-min Rain = 0
KWA1 220321Z 13009KT 30/17 A2996 RMK A01 T02950169  RH  047%=      5-min Rain = 0
KWA1 220322Z 13010KT 30/17 A2996 RMK A01 T02950170  RH  047%=      5-min Rain = 0
KWA1 220323Z 13010KT 30/17 A2996 RMK A01 T02950170  RH  047%=      5-min Rain = 0
KWA1 220324Z 13010KT 30/17 A2996 RMK A01 T02960171  RH  047%=      5-min Rain = 0
KWA1 220325Z 13009KT 30/17 A2996 RMK A01 T02960171  RH  047%=      5-min Rain = 0
KWA1 220326Z 13009KT 30/17 A2996 RMK A01 T02960171  RH  047%=      5-min Rain = 0
KWA1 220327Z 13009KT 30/17 A2996 RMK A01 T02960171  RH  047%=      5-min Rain = 0
KWA1 220328Z 13009KT 30/17 A2996 RMK A01 T02960172  RH  047%=      5-min Rain = 0
KWA1 220329Z 13010KT 30/17 A2996 RMK A01 T02960172  RH  047%=      5-min Rain = 0
KWA1 220330Z 13009KT 30/17 A2996 RMK A01 T02960173  RH  047%=      5-min Rain = 0
KWA1 220331Z 13009KT 30/17 A2996 RMK A01 T02960173  RH  047%=      5-min Rain = 0
KWA1 220332Z 13009KT 30/17 A2996 RMK A01 T02960173  RH  047%=      5-min Rain = 0
KWA1 220333Z 13009KT 30/17 A2996 RMK A01 T02960173  RH  048%=      5-min Rain = 0
KWA1 220334Z 13009KT 30/17 A2996 RMK A01 T02950173  RH  048%=      5-min Rain = 0
KWA1 220335Z 13009KT 30/17 A2997 RMK A01 T02950173  RH  048%=      5-min Rain = 0
KWA1 220336Z 13009KT 30/17 A2997 RMK A01 T02950174  RH  048%=      5-min Rain = 0
KWA1 220337Z 13009KT 30/17 A2997 RMK A01 T02950174  RH  048%=      5-min Rain = 0
KWA1 220338Z 13009KT 30/17 A2997 RMK A01 T02950174  RH  048%=      5-min Rain = 0
KWA1 220339Z 13009KT 29/17 A2997 RMK A01 T02940174  RH  048%=      5-min Rain = 0
KWA1 220340Z 13009KT 29/17 A2997 RMK A01 T02940174  RH  048%=      5-min Rain = 0
KWA1 220341Z 13009KT 29/17 A2997 RMK A01 T02940174  RH  048%=      5-min Rain = 0
KWA1 220342Z 13009KT 29/18 A2997 RMK A01 T02940175  RH  048%=      5-min Rain = 0
KWA1 220343Z 13009KT 29/17 A2997 RMK A01 T02940174  RH  049%=      5-min Rain = 0
KWA1 220344Z 13009KT 29/18 A2997 RMK A01 T02940175  RH  049%=      5-min Rain = 0
KWA1 220345Z 13009KT 29/18 A2997 RMK A01 T02930175  RH  049%=      5-min Rain = 0
KWA1 220346Z 13010KT 29/18 A2997 RMK A01 T02930175  RH  049%=      5-min Rain = 0
KWA1 220347Z 13009KT 29/18 A2997 RMK A01 T02930175  RH  049%=      5-min Rain = 0
KWA1 220348Z 13009KT 29/18 A2997 RMK A01 T02930175  RH  049%=      5-min Rain = 0
KWA1 220349Z 13008KT 29/18 A2997 RMK A01 T02930176  RH  049%=      5-min Rain = 0
KWA1 220350Z 13008KT 29/18 A2997 RMK A01 T02920175  RH  049%=      5-min Rain = 0
KWA1 220351Z 13008KT 29/18 A2997 RMK A01 T02910175  RH  049%=      5-min Rain = 0
KWA1 220352Z 13008KT 29/18 A2997 RMK A01 T02910175  RH  050%=      5-min Rain = 0
KWA1 220353Z 13008KT 29/18 A2997 RMK A01 T02900175  RH  050%=      5-min Rain = 0
KWA1 220354Z 13008KT 29/18 A2997 RMK A01 T02900175  RH  050%=      5-min Rain = 0
KWA1 220355Z 13007KT 29/18 A2997 RMK A01 T02890175  RH  050%=      5-min Rain = 0
KWA1 220356Z 13008KT 29/18 A2997 RMK A01 T02890175  RH  050%=      5-min Rain = 0
KWA1 220357Z 13007KT 29/18 A2997 RMK A01 T02890176  RH  050%=      5-min Rain = 0
KWA1 220358Z 13008KT 29/18 A2997 RMK A01 T02890176  RH  050%=      5-min Rain = 0
KWA1 220359Z 13008KT 29/18 A2997 RMK A01 T02880175  RH  050%=      5-min Rain = 0
KWA1 220400Z 13008KT 29/18 A2997 RMK A01 T02880176  RH  051%=      5-min Rain = 0
KWA1 220401Z 13008KT 29/18 A2997 RMK A01 T02880176  RH  051%=      5-min Rain = 0
KWA1 220402Z 13008KT 29/18 A2997 RMK A01 T02870176  RH  051%=      5-min Rain = 0
KWA1 220403Z 13007KT 29/18 A2997 RMK A01 T02870176  RH  051%=      5-min Rain = 0
KWA1 220404Z 13007KT 29/18 A2997 RMK A01 T02870176  RH  051%=      5-min Rain = 0
KWA1 220405Z 13007KT 29/18 A2997 RMK A01 T02860176  RH  051%=      5-min Rain = 0
KWA1 220406Z 13007KT 29/18 A2997 RMK A01 T02860175  RH  051%=      5-min Rain = 0
KWA1 220407Z 13008KT 29/18 A2997 RMK A01 T02850176  RH  051%=      5-min Rain = 0
KWA1 220408Z 13008KT 29/18 A2997 RMK A01 T02850175  RH  051%=      5-min Rain = 0
KWA1 220409Z 13008KT 29/18 A2997 RMK A01 T02850176  RH  052%=      5-min Rain = 0
KWA1 220410Z 13007KT 29/18 A2997 RMK A01 T02850176  RH  052%=      5-min Rain = 0
KWA1 220411Z 13007KT 29/18 A2997 RMK A01 T02850176  RH  052%=      5-min Rain = 0
KWA1 220412Z 13008KT 28/18 A2997 RMK A01 T02840176  RH  052%=      5-min Rain = 0
KWA1 220413Z 13008KT 28/18 A2997 RMK A01 T02840176  RH  052%=      5-min Rain = 0
KWA1 220414Z 13007KT 28/18 A2997 RMK A01 T02840176  RH  052%=      5-min Rain = 0
KWA1 220415Z 13007KT 28/18 A2997 RMK A01 T02840176  RH  052%=      5-min Rain = 0
KWA1 220416Z 13007KT 28/18 A2997 RMK A01 T02840176  RH  052%=      5-min Rain = 0
KWA1 220417Z 14007KT 28/18 A2997 RMK A01 T02840176  RH  052%=      5-min Rain = 0
KWA1 220418Z 14007KT 28/18 A2997 RMK A01 T02840177  RH  052%=      5-min Rain = 0
KWA1 220419Z 14008KT 28/18 A2997 RMK A01 T02830177  RH  052%=      5-min Rain = 0
KWA1 220420Z 14006KT 28/18 A2997 RMK A01 T02830177  RH  052%=      5-min Rain = 0
KWA1 220421Z 14008KT 28/18 A2997 RMK A01 T02840177  RH  052%=      5-min Rain = 0
KWA1 220422Z 14007KT 28/18 A2997 RMK A01 T02840177  RH  052%=      5-min Rain = 0
KWA1 220423Z 14007KT 28/18 A2997 RMK A01 T02840177  RH  052%=      5-min Rain = 0
KWA1 220424Z 14007KT 28/18 A2997 RMK A01 T02840177  RH  052%=      5-min Rain = 0
KWA1 220425Z 14008KT 28/18 A2997 RMK A01 T02840177  RH  052%=      5-min Rain = 0
KWA1 220426Z 14008KT 28/18 A2997 RMK A01 T02840177  RH  052%=      5-min Rain = 0
KWA1 220427Z 14007KT 28/18 A2997 RMK A01 T02840177  RH  052%=      5-min Rain = 0
KWA1 220428Z 14007KT 28/18 A2997 RMK A01 T02840178  RH  052%=      5-min Rain = 0
KWA1 220429Z 14008KT 28/18 A2997 RMK A01 T02840178  RH  053%=      5-min Rain = 0
KWA1 220430Z 14008KT 28/18 A2997 RMK A01 T02840178  RH  053%=      5-min Rain = 0
KWA1 220431Z 14008KT 28/18 A2997 RMK A01 T02840178  RH  052%=      5-min Rain = 0
KWA1 220432Z 15008KT 29/18 A2997 RMK A01 T02850178  RH  053%=      5-min Rain = 0
KWA1 220433Z 14008KT 29/18 A2997 RMK A01 T02850178  RH  052%=      5-min Rain = 0
KWA1 220434Z 14008KT 29/18 A2997 RMK A01 T02850179  RH  052%=      5-min Rain = 0
KWA1 220435Z 14008KT 29/18 A2997 RMK A01 T02850179  RH  052%=      5-min Rain = 0
KWA1 220436Z 14007KT 29/18 A2997 RMK A01 T02850179  RH  052%=      5-min Rain = 0
KWA1 220437Z 15008KT 29/18 A2997 RMK A01 T02850178  RH  053%=      5-min Rain = 0
KWA1 220438Z 15007KT 28/18 A2997 RMK A01 T02840178  RH  053%=      5-min Rain = 0
KWA1 220439Z 15007KT 28/18 A2997 RMK A01 T02840178  RH  053%=      5-min Rain = 0
KWA1 220440Z 15007KT 28/18 A2997 RMK A01 T02830178  RH  053%=      5-min Rain = 0
KWA1 220441Z 15007KT 28/18 A2997 RMK A01 T02830178  RH  053%=      5-min Rain = 0
KWA1 220442Z 15007KT 28/18 A2997 RMK A01 T02830178  RH  053%=      5-min Rain = 0
KWA1 220443Z 15007KT 28/18 A2997 RMK A01 T02830178  RH  053%=      5-min Rain = 0
KWA1 220444Z 15008KT 28/18 A2997 RMK A01 T02830178  RH  053%=      5-min Rain = 0
KWA1 220445Z 15008KT 28/18 A2997 RMK A01 T02830178  RH  053%=      5-min Rain = 0
KWA1 220446Z 15007KT 28/18 A2997 RMK A01 T02830179  RH  053%=      5-min Rain = 0
KWA1 220447Z 15007KT 28/18 A2997 RMK A01 T02840179  RH  053%=      5-min Rain = 0
KWA1 220448Z 15008KT 28/18 A2997 RMK A01 T02830179  RH  053%=      5-min Rain = 0
KWA1 220449Z 15008KT 28/18 A2997 RMK A01 T02840180  RH  053%=      5-min Rain = 0
KWA1 220450Z 15008KT 28/18 A2997 RMK A01 T02840180  RH  053%=      5-min Rain = 0
KWA1 220451Z 14008KT 29/18 A2997 RMK A01 T02850180  RH  053%=      5-min Rain = 0
KWA1 220452Z 15008KT 29/18 A2998 RMK A01 T02850180  RH  053%=      5-min Rain = 0
KWA1 220453Z 14008KT 29/18 A2998 RMK A01 T02850180  RH  053%=      5-min Rain = 0
KWA1 220454Z 14010KT 29/18 A2998 RMK A01 T02850180  RH  053%=      5-min Rain = 0
KWA1 220455Z 15009KT 29/18 A2998 RMK A01 T02860181  RH  053%=      5-min Rain = 0
KWA1 220456Z 15008KT 29/18 A2998 RMK A01 T02870181  RH  053%=      5-min Rain = 0
KWA1 220457Z 14009KT 29/18 A2998 RMK A01 T02870181  RH  053%=      5-min Rain = 0
KWA1 220458Z 14009KT 29/18 A2998 RMK A01 T02870181  RH  053%=      5-min Rain = 0
KWA1 220459Z 15009KT 29/18 A2998 RMK A01 T02870181  RH  053%=      5-min Rain = 0

Page generated in 0.1215 seconds.